Wetterdaten: Mittwoch, 25.12.2013
Datum Zeit Temp. Aussen +5cm Feuchte Auss Luftdruck Regen Sonnenschein Regendauer UV Solar Windben
25.12.2013 00:00 7,3 C 6,1 C 95 % 987,5 hPa 0,2 l/m 0 min 2 min 0,0 UV-I 0 W/m 5,1 km/h (1 Bft)
25.12.2013 00:02 7,3 C 6,1 C 95 % 987,4 hPa 0,0 l/m 0 min 2 min 0,0 UV-I 0 W/m 5,1 km/h (1 Bft)
25.12.2013 00:04 7,3 C 6,1 C 96 % 987,3 hPa 0,0 l/m 0 min 2 min 0,0 UV-I 0 W/m 7,7 km/h (2 Bft)
25.12.2013 00:06 7,3 C 6,1 C 96 % 987,2 hPa 0,0 l/m 0 min 2 min 0,0 UV-I 0 W/m 0,0 km/h (0 Bft)
25.12.2013 00:08 7,3 C 6,1 C 96 % 987,1 hPa 0,0 l/m 0 min 2 min 0,0 UV-I 0 W/m 2,6 km/h (1 Bft)
25.12.2013 00:10 7,3 C 6,1 C 96 % 987,2 hPa 0,0 l/m 0 min 2 min 0,0 UV-I 0 W/m 7,7 km/h (2 Bft)
25.12.2013 00:12 7,3 C 6,1 C 96 % 987,1 hPa 0,2 l/m 0 min 2 min 0,0 UV-I 0 W/m 7,7 km/h (2 Bft)
25.12.2013 00:14 7,3 C 6,1 C 96 % 987,1 hPa 0,0 l/m 0 min 2 min 0,0 UV-I 0 W/m 5,1 km/h (1 Bft)
25.12.2013 00:16 7,3 C 6,1 C 96 % 987,1 hPa 0,2 l/m 0 min 2 min 0,0 UV-I 0 W/m 0,0 km/h (0 Bft)
25.12.2013 00:18 7,3 C 6,1 C 96 % 987,0 hPa 0,0 l/m 0 min 2 min 0,0 UV-I 0 W/m 7,7 km/h (2 Bft)
25.12.2013 00:20 7,3 C 6,1 C 96 % 986,9 hPa 0,0 l/m 0 min 2 min 0,0 UV-I 0 W/m 10,3 km/h (2 Bft)
25.12.2013 00:22 7,3 C 6,1 C 96 % 986,9 hPa 0,2 l/m 0 min 2 min 0,0 UV-I 0 W/m 2,6 km/h (1 Bft)
25.12.2013 00:24 7,3 C 6,1 C 96 % 986,9 hPa 0,0 l/m 0 min 2 min 0,0 UV-I 0 W/m 10,3 km/h (2 Bft)
25.12.2013 00:26 7,4 C 6,1 C 96 % 986,8 hPa 0,2 l/m 0 min 2 min 0,0 UV-I 0 W/m 10,3 km/h (2 Bft)
25.12.2013 00:28 7,4 C 6,1 C 96 % 986,8 hPa 0,0 l/m 0 min 2 min 0,0 UV-I 0 W/m 5,1 km/h (1 Bft)
25.12.2013 00:30 7,4 C 6,1 C 96 % 986,8 hPa 0,0 l/m 0 min 2 min 0,0 UV-I 0 W/m 5,1 km/h (1 Bft)
25.12.2013 00:32 7,4 C 6,1 C 96 % 986,8 hPa 0,2 l/m 0 min 2 min 0,0 UV-I 0 W/m 12,9 km/h (3 Bft)
25.12.2013 00:34 7,4 C 6,1 C 96 % 986,7 hPa 0,2 l/m 0 min 2 min 0,0 UV-I 0 W/m 10,3 km/h (2 Bft)
25.12.2013 00:36 7,4 C 6,1 C 96 % 986,6 hPa 0,0 l/m 0 min 2 min 0,0 UV-I 0 W/m 12,9 km/h (3 Bft)
25.12.2013 00:38 7,5 C 6,7 C 96 % 986,5 hPa 0,2 l/m 0 min 2 min 0,0 UV-I 0 W/m 7,7 km/h (2 Bft)
25.12.2013 00:40 7,5 C 6,7 C 96 % 986,5 hPa 0,0 l/m 0 min 2 min 0,0 UV-I 0 W/m 10,3 km/h (2 Bft)
25.12.2013 00:42 7,5 C 6,7 C 96 % 986,5 hPa 0,2 l/m 0 min 2 min 0,0 UV-I 0 W/m 10,3 km/h (2 Bft)
25.12.2013 00:44 7,6 C 6,7 C 96 % 986,4 hPa 0,0 l/m 0 min 2 min 0,0 UV-I 0 W/m 7,7 km/h (2 Bft)
25.12.2013 00:46 7,6 C 6,7 C 96 % 986,4 hPa 0,0 l/m 0 min 2 min 0,0 UV-I 0 W/m 10,3 km/h (2 Bft)
25.12.2013 00:48 7,6 C 6,7 C 96 % 986,3 hPa 0,0 l/m 0 min 2 min 0,0 UV-I 0 W/m 5,1 km/h (1 Bft)
25.12.2013 00:50 7,6 C 6,7 C 96 % 986,3 hPa 0,2 l/m 0 min 2 min 0,0 UV-I 0 W/m 0,0 km/h (0 Bft)
25.12.2013 00:52 7,6 C 6,7 C 97 % 986,2 hPa 0,2 l/m 0 min 2 min 0,0 UV-I 0 W/m 7,7 km/h (2 Bft)
25.12.2013 00:54 7,6 C 6,7 C 97 % 986,1 hPa 0,0 l/m 0 min 2 min 0,0 UV-I 0 W/m 2,6 km/h (1 Bft)
25.12.2013 00:56 7,6 C 6,7 C 97 % 986,3 hPa 0,2 l/m 0 min 2 min 0,0 UV-I 0 W/m 0,0 km/h (0 Bft)
25.12.2013 00:58 7,6 C 6,7 C 97 % 986,4 hPa 0,2 l/m 0 min 2 min 0,0 UV-I 0 W/m 0,0 km/h (0 Bft)
25.12.2013 01:00 7,6 C 6,7 C 97 % 986,4 hPa 0,2 l/m 0 min 2 min 0,0 UV-I 0 W/m 0,0 km/h (0 Bft)
25.12.2013 01:02 7,7 C 6,7 C 97 % 985,8 hPa 0,0 l/m 0 min 2 min 0,0 UV-I 0 W/m 18,0 km/h (3 Bft)
25.12.2013 01:04 7,7 C 6,7 C 97 % 985,9 hPa 0,0 l/m 0 min 2 min 0,0 UV-I 0 W/m 5,1 km/h (1 Bft)
25.12.2013 01:06 7,7 C 6,7 C 97 % 986,3 hPa 0,2 l/m 0 min 2 min 0,0 UV-I 0 W/m 0,0 km/h (0 Bft)
25.12.2013 01:08 7,7 C 6,7 C 97 % 986,1 hPa 0,0 l/m 0 min 2 min 0,0 UV-I 0 W/m 5,1 km/h (1 Bft)
25.12.2013 01:10 7,7 C 6,7 C 97 % 985,9 hPa 0,2 l/m 0 min 2 min 0,0 UV-I 0 W/m 2,6 km/h (1 Bft)
25.12.2013 01:12 7,7 C 6,7 C 97 % 985,7 hPa 0,0 l/m 0 min 2 min 0,0 UV-I 0 W/m 5,1 km/h (1 Bft)
25.12.2013 01:14 7,8 C 6,7 C 97 % 985,6 hPa 0,0 l/m 0 min 2 min 0,0 UV-I 0 W/m 10,3 km/h (2 Bft)
25.12.2013 01:16 7,8 C 6,7 C 97 % 985,5 hPa 0,2 l/m 0 min 2 min 0,0 UV-I 0 W/m 7,7 km/h (2 Bft)
25.12.2013 01:18 7,8 C 6,7 C 97 % 985,6 hPa 0,0 l/m 0 min 2 min 0,0 UV-I 0 W/m 2,6 km/h (1 Bft)
25.12.2013 01:20 7,8 C 6,7 C 97 % 985,7 hPa 0,0 l/m 0 min 2 min 0,0 UV-I 0 W/m 0,0 km/h (0 Bft)
25.12.2013 01:22 7,8 C 6,7 C 97 % 985,7 hPa 0,0 l/m 0 min 2 min 0,0 UV-I 0 W/m 0,0 km/h (0 Bft)
25.12.2013 01:24 7,8 C 6,7 C 97 % 985,7 hPa 0,0 l/m 0 min 2 min 0,0 UV-I 0 W/m 0,0 km/h (0 Bft)
25.12.2013 01:26 7,8 C 6,7 C 97 % 985,7 hPa 0,0 l/m 0 min 2 min 0,0 UV-I 0 W/m 0,0 km/h (0 Bft)
25.12.2013 01:28 7,8 C 6,7 C 97 % 985,6 hPa 0,0 l/m 0 min 2 min 0,0 UV-I 0 W/m 0,0 km/h (0 Bft)
25.12.2013 01:30 7,8 C 6,7 C 97 % 985,5 hPa 0,0 l/m 0 min 2 min 0,0 UV-I 0 W/m 2,6 km/h (1 Bft)
25.12.2013 01:32 7,8 C 6,7 C 97 % 985,4 hPa 0,0 l/m 0 min 2 min 0,0 UV-I 0 W/m 0,0 km/h (0 Bft)
25.12.2013 01:34 7,8 C 6,7 C 97 % 985,3 hPa 0,0 l/m 0 min 2 min 0,0 UV-I 0 W/m 7,7 km/h (2 Bft)
25.12.2013 01:36 7,8 C 6,7 C 97 % 985,2 hPa 0,0 l/m 0 min 2 min 0,0 UV-I 0 W/m 0,0 km/h (0 Bft)
25.12.2013 01:38 7,8 C 6,7 C 97 % 985,1 hPa 0,0 l/m 0 min 2 min 0,0 UV-I 0 W/m 2,6 km/h (1 Bft)
25.12.2013 01:40 7,9 C 6,7 C 97 % 985,0 hPa 0,0 l/m 0 min 2 min 0,0 UV-I 0 W/m 2,6 km/h (1 Bft)
25.12.2013 01:42 7,8 C 6,7 C 97 % 984,9 hPa 0,2 l/m 0 min 2 min 0,0 UV-I 0 W/m 0,0 km/h (0 Bft)
25.12.2013 01:44 7,8 C 6,7 C 97 % 985,0 hPa 0,0 l/m 0 min 2 min 0,0 UV-I 0 W/m 7,7 km/h (2 Bft)
25.12.2013 01:46 7,8 C 6,7 C 97 % 984,8 hPa 0,0 l/m 0 min 2 min 0,0 UV-I 0 W/m 0,0 km/h (0 Bft)
25.12.2013 01:48 7,8 C 6,7 C 97 % 984,9 hPa 0,0 l/m 0 min 2 min 0,0 UV-I 0 W/m 7,7 km/h (2 Bft)
25.12.2013 01:50 7,8 C 6,7 C 97 % 984,8 hPa 0,0 l/m 0 min 2 min 0,0 UV-I 0 W/m 5,1 km/h (1 Bft)
25.12.2013 01:52 7,8 C 6,7 C 97 % 984,8 hPa 0,0 l/m 0 min 2 min 0,0 UV-I 0 W/m 5,1 km/h (1 Bft)
25.12.2013 01:54 7,8 C 6,7 C 97 % 984,8 hPa 0,0 l/m 0 min 2 min 0,0 UV-I 0 W/m 5,1 km/h (1 Bft)
25.12.2013 01:56 7,8 C 6,7 C 97 % 984,7 hPa 0,0 l/m 0 min 2 min 0,0 UV-I 0 W/m 7,7 km/h (2 Bft)
25.12.2013 01:58 7,8 C 6,7 C 97 % 984,7 hPa 0,0 l/m 0 min 2 min 0,0 UV-I 0 W/m 7,7 km/h (2 Bft)
25.12.2013 02:00 7,8 C 6,7 C 97 % 984,7 hPa 0,0 l/m 0 min 2 min 0,0 UV-I 0 W/m 0,0 km/h (0 Bft)
25.12.2013 02:02 7,8 C 6,7 C 97 % 984,6 hPa 0,0 l/m 0 min 2 min 0,0 UV-I 0 W/m 2,6 km/h (1 Bft)
25.12.2013 02:04 7,8 C 6,7 C 97 % 984,6 hPa 0,0 l/m 0 min 2 min 0,0 UV-I 0 W/m 2,6 km/h (1 Bft)
25.12.2013 02:06 7,8 C 6,7 C 97 % 984,6 hPa 0,0 l/m 0 min 2 min 0,0 UV-I 0 W/m 0,0 km/h (0 Bft)
25.12.2013 02:08 7,8 C 6,7 C 97 % 984,5 hPa 0,0 l/m 0 min 2 min 0,0 UV-I 0 W/m 0,0 km/h (0 Bft)
25.12.2013 02:10 7,8 C 6,7 C 97 % 984,4 hPa 0,2 l/m 0 min 2 min 0,0 UV-I 0 W/m 7,7 km/h (2 Bft)
25.12.2013 02:12 7,8 C 6,7 C 97 % 984,3 hPa 0,0 l/m 0 min 2 min 0,0 UV-I 0 W/m 5,1 km/h (1 Bft)
25.12.2013 02:14 7,8 C 6,7 C 97 % 984,3 hPa 0,0 l/m 0 min 2 min 0,0 UV-I 0 W/m 0,0 km/h (0 Bft)
25.12.2013 02:16 7,8 C 6,7 C 97 % 984,3 hPa 0,0 l/m 0 min 2 min 0,0 UV-I 0 W/m 7,7 km/h (2 Bft)
25.12.2013 02:18 7,8 C 6,7 C 97 % 984,1 hPa 0,0 l/m 0 min 2 min 0,0 UV-I 0 W/m 0,0 km/h (0 Bft)
25.12.2013 02:20 7,8 C 6,7 C 97 % 984,1 hPa 0,0 l/m 0 min 2 min 0,0 UV-I 0 W/m 0,0 km/h (0 Bft)
25.12.2013 02:22 7,8 C 6,7 C 97 % 984,1 hPa 0,0 l/m 0 min 2 min 0,0 UV-I 0 W/m 10,3 km/h (2 Bft)
25.12.2013 02:24 7,8 C 6,7 C 97 % 984,1 hPa 0,0 l/m 0 min 2 min 0,0 UV-I 0 W/m 5,1 km/h (1 Bft)
25.12.2013 02:26 7,8 C 6,7 C 97 % 984,1 hPa 0,0 l/m 0 min 2 min 0,0 UV-I 0 W/m 15,4 km/h (3 Bft)
25.12.2013 02:28 7,8 C 6,7 C 97 % 984,1 hPa 0,0 l/m 0 min 2 min 0,0 UV-I 0 W/m 10,3 km/h (2 Bft)
25.12.2013 02:30 7,8 C 6,7 C 97 % 984,1 hPa 0,0 l/m 0 min 2 min 0,0 UV-I 0 W/m 10,3 km/h (2 Bft)
25.12.2013 02:32 7,9 C 6,7 C 97 % 984,1 hPa 0,0 l/m 0 min 2 min 0,0 UV-I 0 W/m 10,3 km/h (2 Bft)
25.12.2013 02:34 7,9 C 6,7 C 97 % 984,1 hPa 0,2 l/m 0 min 2 min 0,0 UV-I 0 W/m 10,3 km/h (2 Bft)
25.12.2013 02:36 7,9 C 7,2 C 97 % 984,0 hPa 0,0 l/m 0 min 2 min 0,0 UV-I 0 W/m 10,3 km/h (2 Bft)
25.12.2013 02:38 8,0 C 7,2 C 97 % 983,8 hPa 0,0 l/m 0 min 2 min 0,0 UV-I 0 W/m 18,0 km/h (3 Bft)
25.12.2013 02:40 8,1 C 7,2 C 98 % 983,9 hPa 0,0 l/m 0 min 2 min 0,0 UV-I 0 W/m 18,0 km/h (3 Bft)
25.12.2013 02:42 8,1 C 7,2 C 98 % 983,8 hPa 0,0 l/m 0 min 2 min 0,0 UV-I 0 W/m 23,2 km/h (4 Bft)
25.12.2013 02:44 8,2 C 7,2 C 98 % 983,8 hPa 0,0 l/m 0 min 2 min 0,0 UV-I 0 W/m 12,9 km/h (3 Bft)
25.12.2013 02:46 8,3 C 7,2 C 98 % 983,8 hPa 0,0 l/m 0 min 2 min 0,0 UV-I 0 W/m 12,9 km/h (3 Bft)
25.12.2013 02:48 8,4 C 7,2 C 98 % 983,8 hPa 0,2 l/m 0 min 2 min 0,0 UV-I 0 W/m 15,4 km/h (3 Bft)
25.12.2013 02:50 8,4 C 7,8 C 98 % 983,8 hPa 0,0 l/m 0 min 2 min 0,0 UV-I 0 W/m 18,0 km/h (3 Bft)
25.12.2013 02:52 8,6 C 7,8 C 98 % 983,8 hPa 0,0 l/m 0 min 2 min 0,0 UV-I 0 W/m 12,9 km/h (3 Bft)
25.12.2013 02:54 8,6 C 7,8 C 98 % 983,8 hPa 0,0 l/m 0 min 2 min 0,0 UV-I 0 W/m 23,2 km/h (4 Bft)
25.12.2013 02:56 8,7 C 7,8 C 98 % 983,8 hPa 0,0 l/m 0 min 2 min 0,0 UV-I 0 W/m 18,0 km/h (3 Bft)
25.12.2013 02:58 8,7 C 7,8 C 98 % 983,8 hPa 0,2 l/m 0 min 2 min 0,0 UV-I 0 W/m 15,4 km/h (3 Bft)
25.12.2013 03:00 8,8 C 7,8 C 98 % 983,8 hPa 0,0 l/m 0 min 2 min 0,0 UV-I 0 W/m 23,2 km/h (4 Bft)
25.12.2013 03:02 8,9 C 7,8 C 98 % 983,9 hPa 0,0 l/m 0 min 2 min 0,0 UV-I 0 W/m 15,4 km/h (3 Bft)
25.12.2013 03:04 9,0 C 7,8 C 98 % 983,8 hPa 0,2 l/m 0 min 2 min 0,0 UV-I 0 W/m 10,3 km/h (2 Bft)
25.12.2013 03:06 9,1 C 7,8 C 98 % 983,7 hPa 0,0 l/m 0 min 2 min 0,0 UV-I 0 W/m 12,9 km/h (3 Bft)
25.12.2013 03:08 9,1 C 7,8 C 98 % 983,8 hPa 0,0 l/m 0 min 2 min 0,0 UV-I 0 W/m 18,0 km/h (3 Bft)
25.12.2013 03:10 9,2 C 7,8 C 98 % 983,7 hPa 0,0 l/m 0 min 2 min 0,0 UV-I 0 W/m 12,9 km/h (3 Bft)
25.12.2013 03:12 9,2 C 7,8 C 98 % 983,7 hPa 0,0 l/m 0 min 2 min 0,0 UV-I 0 W/m 12,9 km/h (3 Bft)
25.12.2013 03:14 9,2 C 7,8 C 98 % 983,6 hPa 0,0 l/m 0 min 2 min 0,0 UV-I 0 W/m 20,6 km/h (4 Bft)
25.12.2013 03:16 9,3 C 7,8 C 98 % 983,7 hPa 0,2 l/m 0 min 2 min 0,0 UV-I 0 W/m 5,1 km/h (1 Bft)
25.12.2013 03:18 9,3 C 7,8 C 98 % 983,6 hPa 0,0 l/m 0 min 2 min 0,0 UV-I 0 W/m 25,7 km/h (4 Bft)
25.12.2013 03:20 9,3 C 7,8 C 98 % 983,5 hPa 0,0 l/m 0 min 2 min 0,0 UV-I 0 W/m 10,3 km/h (2 Bft)
25.12.2013 03:22 9,3 C 7,8 C 98 % 983,7 hPa 0,2 l/m 0 min 2 min 0,0 UV-I 0 W/m 15,4 km/h (3 Bft)
25.12.2013 03:24 9,4 C 7,8 C 98 % 984,8 hPa 0,6 l/m 0 min 2 min 0,0 UV-I 0 W/m 33,5 km/h (5 Bft)
25.12.2013 03:26 9,3 C 7,8 C 98 % 984,4 hPa 0,6 l/m 0 min 2 min 0,0 UV-I 0 W/m 38,6 km/h (5 Bft)
25.12.2013 03:28 9,2 C 7,2 C 98 % 984,4 hPa 0,0 l/m 0 min 2 min 0,0 UV-I 0 W/m 23,2 km/h (4 Bft)
25.12.2013 03:30 9,2 C 7,2 C 98 % 984,5 hPa 0,2 l/m 0 min 2 min 0,0 UV-I 0 W/m 20,6 km/h (4 Bft)
25.12.2013 03:32 9,1 C 7,2 C 98 % 984,4 hPa 0,2 l/m 0 min 2 min 0,0 UV-I 0 W/m 23,2 km/h (4 Bft)
25.12.2013 03:34 9,0 C 7,2 C 98 % 984,6 hPa 0,0 l/m 0 min 2 min 0,0 UV-I 0 W/m 15,4 km/h (3 Bft)
25.12.2013 03:36 8,9 C 7,2 C 98 % 984,6 hPa 0,2 l/m 0 min 2 min 0,0 UV-I 0 W/m 12,9 km/h (3 Bft)
25.12.2013 03:38 8,9 C 7,2 C 98 % 984,5 hPa 0,2 l/m 0 min 2 min 0,0 UV-I 0 W/m 18,0 km/h (3 Bft)
25.12.2013 03:40 8,9 C 7,2 C 98 % 984,6 hPa 0,0 l/m 0 min 2 min 0,0 UV-I 0 W/m 12,9 km/h (3 Bft)
25.12.2013 03:42 8,8 C 7,2 C 98 % 984,7 hPa 0,0 l/m 0 min 2 min 0,0 UV-I 0 W/m 7,7 km/h (2 Bft)
25.12.2013 03:44 8,8 C 7,2 C 98 % 984,5 hPa 0,0 l/m 0 min 2 min 0,0 UV-I 0 W/m 12,9 km/h (3 Bft)
25.12.2013 03:46 8,8 C 7,2 C 98 % 984,5 hPa 0,0 l/m 0 min 2 min 0,0 UV-I 0 W/m 2,6 km/h (1 Bft)
25.12.2013 03:48 8,8 C 7,2 C 98 % 984,4 hPa 0,0 l/m 0 min 2 min 0,0 UV-I 0 W/m 10,3 km/h (2 Bft)
25.12.2013 03:50 8,8 C 7,2 C 98 % 984,4 hPa 0,0 l/m 0 min 2 min 0,0 UV-I 0 W/m 7,7 km/h (2 Bft)
25.12.2013 03:52 8,8 C 7,2 C 98 % 984,5 hPa 0,0 l/m 0 min 2 min 0,0 UV-I 0 W/m 18,0 km/h (3 Bft)
25.12.2013 03:54 8,7 C 7,2 C 98 % 984,6 hPa 0,2 l/m 0 min 2 min 0,0 UV-I 0 W/m 15,4 km/h (3 Bft)
25.12.2013 03:56 8,7 C 7,2 C 98 % 984,5 hPa 0,0 l/m 0 min 2 min 0,0 UV-I 0 W/m 10,3 km/h (2 Bft)
25.12.2013 03:58 8,7 C 7,2 C 97 % 984,6 hPa 0,0 l/m 0 min 2 min 0,0 UV-I 0 W/m 0,0 km/h (0 Bft)
25.12.2013 04:00 8,7 C 7,2 C 97 % 984,7 hPa 0,2 l/m 0 min 2 min 0,0 UV-I 0 W/m 2,6 km/h (1 Bft)
25.12.2013 04:02 8,7 C 7,2 C 97 % 984,7 hPa 0,0 l/m 0 min 2 min 0,0 UV-I 0 W/m 15,4 km/h (3 Bft)
25.12.2013 04:04 8,7 C 7,2 C 97 % 984,7 hPa 0,0 l/m 0 min 2 min 0,0 UV-I 0 W/m 7,7 km/h (2 Bft)
25.12.2013 04:06 8,7 C 7,2 C 97 % 984,8 hPa 0,0 l/m 0 min 2 min 0,0 UV-I 0 W/m 0,0 km/h (0 Bft)
25.12.2013 04:08 8,7 C 7,2 C 97 % 984,8 hPa 0,2 l/m 0 min 2 min 0,0 UV-I 0 W/m 12,9 km/h (3 Bft)
25.12.2013 04:10 8,7 C 7,2 C 97 % 985,0 hPa 0,0 l/m 0 min 2 min 0,0 UV-I 0 W/m 7,7 km/h (2 Bft)
25.12.2013 04:12 8,7 C 7,2 C 97 % 984,9 hPa 0,2 l/m 0 min 2 min 0,0 UV-I 0 W/m 12,9 km/h (3 Bft)
25.12.2013 04:14 8,7 C 7,2 C 97 % 984,8 hPa 0,0 l/m 0 min 2 min 0,0 UV-I 0 W/m 10,3 km/h (2 Bft)
25.12.2013 04:16 8,7 C 7,2 C 97 % 984,9 hPa 0,0 l/m 0 min 2 min 0,0 UV-I 0 W/m 12,9 km/h (3 Bft)
25.12.2013 04:18 8,7 C 7,2 C 98 % 984,9 hPa 0,0 l/m 0 min 2 min 0,0 UV-I 0 W/m 10,3 km/h (2 Bft)
25.12.2013 04:20 8,7 C 7,2 C 98 % 984,8 hPa 0,0 l/m 0 min 2 min 0,0 UV-I 0 W/m 2,6 km/h (1 Bft)
25.12.2013 04:22 8,7 C 7,2 C 97 % 984,8 hPa 0,0 l/m 0 min 2 min 0,0 UV-I 0 W/m 5,1 km/h (1 Bft)
25.12.2013 04:24 8,7 C 7,2 C 97 % 984,9 hPa 0,0 l/m 0 min 2 min 0,0 UV-I 0 W/m 15,4 km/h (3 Bft)
25.12.2013 04:26 8,7 C 7,2 C 97 % 984,8 hPa 0,0 l/m 0 min 2 min 0,0 UV-I 0 W/m 15,4 km/h (3 Bft)
25.12.2013 04:28 8,7 C 7,2 C 97 % 984,8 hPa 0,2 l/m 0 min 2 min 0,0 UV-I 0 W/m 7,7 km/h (2 Bft)
25.12.2013 04:30 8,7 C 7,2 C 97 % 984,9 hPa 0,0 l/m 0 min 2 min 0,0 UV-I 0 W/m 12,9 km/h (3 Bft)
25.12.2013 04:32 8,7 C 7,2 C 97 % 984,8 hPa 0,0 l/m 0 min 2 min 0,0 UV-I 0 W/m 18,0 km/h (3 Bft)
25.12.2013 04:34 8,7 C 7,2 C 97 % 984,9 hPa 0,0 l/m 0 min 0 min 0,0 UV-I 0 W/m 15,4 km/h (3 Bft)
25.12.2013 04:36 8,7 C 7,2 C 97 % 984,9 hPa 0,0 l/m 0 min 2 min 0,0 UV-I 0 W/m 18,0 km/h (3 Bft)
25.12.2013 04:38 8,7 C 7,2 C 97 % 984,8 hPa 0,0 l/m 0 min 2 min 0,0 UV-I 0 W/m 18,0 km/h (3 Bft)
25.12.2013 04:40 8,7 C 7,2 C 97 % 984,9 hPa 0,0 l/m 0 min 2 min 0,0 UV-I 0 W/m 10,3 km/h (2 Bft)
25.12.2013 04:42 8,7 C 7,2 C 97 % 985,0 hPa 0,0 l/m 0 min 2 min 0,0 UV-I 0 W/m 20,6 km/h (4 Bft)
25.12.2013 04:44 8,7 C 7,2 C 97 % 985,0 hPa 0,0 l/m 0 min 2 min 0,0 UV-I 0 W/m 15,4 km/h (3 Bft)
25.12.2013 04:46 8,7 C 7,2 C 97 % 984,9 hPa 0,0 l/m 0 min 2 min 0,0 UV-I 0 W/m 18,0 km/h (3 Bft)
25.12.2013 04:48 8,7 C 7,2 C 97 % 984,9 hPa 0,0 l/m 0 min 2 min 0,0 UV-I 0 W/m 18,0 km/h (3 Bft)
25.12.2013 04:50 8,7 C 7,2 C 97 % 984,9 hPa 0,0 l/m 0 min 2 min 0,0 UV-I 0 W/m 20,6 km/h (4 Bft)
25.12.2013 04:52 8,7 C 7,2 C 97 % 984,9 hPa 0,0 l/m 0 min 2 min 0,0 UV-I 0 W/m 10,3 km/h (2 Bft)
25.12.2013 04:54 8,7 C 7,2 C 97 % 985,0 hPa 0,0 l/m 0 min 2 min 0,0 UV-I 0 W/m 15,4 km/h (3 Bft)
25.12.2013 04:56 8,7 C 7,2 C 97 % 985,0 hPa 0,0 l/m 0 min 2 min 0,0 UV-I 0 W/m 15,4 km/h (3 Bft)
25.12.2013 04:58 8,7 C 7,2 C 97 % 984,9 hPa 0,0 l/m 0 min 2 min 0,0 UV-I 0 W/m 15,4 km/h (3 Bft)
25.12.2013 05:00 8,7 C 7,2 C 97 % 985,0 hPa 0,0 l/m 0 min 2 min 0,0 UV-I 0 W/m 12,9 km/h (3 Bft)
25.12.2013 05:02 8,7 C 7,2 C 97 % 984,9 hPa 0,0 l/m 0 min 2 min 0,0 UV-I 0 W/m 12,9 km/h (3 Bft)
25.12.2013 05:04 8,7 C 7,2 C 97 % 984,8 hPa 0,0 l/m 0 min 2 min 0,0 UV-I 0 W/m 2,6 km/h (1 Bft)
25.12.2013 05:06 8,7 C 7,2 C 97 % 984,9 hPa 0,0 l/m 0 min 2 min 0,0 UV-I 0 W/m 20,6 km/h (4 Bft)
25.12.2013 05:08 8,7 C 7,2 C 97 % 985,0 hPa 0,2 l/m 0 min 2 min 0,0 UV-I 0 W/m 12,9 km/h (3 Bft)
25.12.2013 05:10 8,7 C 7,2 C 97 % 985,0 hPa 0,0 l/m 0 min 2 min 0,0 UV-I 0 W/m 10,3 km/h (2 Bft)
25.12.2013 05:12 8,7 C 7,2 C 97 % 985,1 hPa 0,0 l/m 0 min 2 min 0,0 UV-I 0 W/m 12,9 km/h (3 Bft)
25.12.2013 05:14 8,7 C 7,2 C 97 % 985,1 hPa 0,0 l/m 0 min 0 min 0,0 UV-I 0 W/m 15,4 km/h (3 Bft)
25.12.2013 05:16 8,7 C 7,2 C 97 % 985,1 hPa 0,0 l/m 0 min 0 min 0,0 UV-I 0 W/m 7,7 km/h (2 Bft)
25.12.2013 05:18 8,7 C 7,2 C 97 % 985,1 hPa 0,0 l/m 0 min 0 min 0,0 UV-I 0 W/m 20,6 km/h (4 Bft)
25.12.2013 05:20 8,7 C 7,2 C 97 % 985,2 hPa 0,0 l/m 0 min 2 min 0,0 UV-I 0 W/m 15,4 km/h (3 Bft)
25.12.2013 05:22 8,7 C 7,2 C 97 % 985,2 hPa 0,0 l/m 0 min 0 min 0,0 UV-I 0 W/m 10,3 km/h (2 Bft)
25.12.2013 05:24 8,7 C 7,2 C 97 % 985,2 hPa 0,0 l/m 0 min 0 min 0,0 UV-I 0 W/m 20,6 km/h (4 Bft)
25.12.2013 05:26 8,7 C 7,2 C 97 % 985,3 hPa 0,0 l/m 0 min 0 min 0,0 UV-I 0 W/m 15,4 km/h (3 Bft)
25.12.2013 05:28 8,7 C 7,2 C 97 % 985,3 hPa 0,0 l/m 0 min 0 min 0,0 UV-I 0 W/m 10,3 km/h (2 Bft)
25.12.2013 05:30 8,7 C 7,2 C 97 % 985,3 hPa 0,0 l/m 0 min 2 min 0,0 UV-I 0 W/m 18,0 km/h (3 Bft)
25.12.2013 05:32 8,6 C 7,2 C 97 % 985,4 hPa 0,0 l/m 0 min 0 min 0,0 UV-I 0 W/m 15,4 km/h (3 Bft)
25.12.2013 05:34 8,7 C 6,7 C 97 % 985,4 hPa 0,0 l/m 0 min 0 min 0,0 UV-I 0 W/m 2,6 km/h (1 Bft)
25.12.2013 05:36 8,7 C 7,2 C 97 % 985,5 hPa 0,0 l/m 0 min 0 min 0,0 UV-I 0 W/m 12,9 km/h (3 Bft)
25.12.2013 05:38 8,6 C 6,7 C 97 % 985,5 hPa 0,0 l/m 0 min 0 min 0,0 UV-I 0 W/m 10,3 km/h (2 Bft)
25.12.2013 05:40 8,6 C 7,2 C 97 % 985,7 hPa 0,0 l/m 0 min 0 min 0,0 UV-I 0 W/m 15,4 km/h (3 Bft)
25.12.2013 05:42 8,6 C 7,2 C 97 % 985,7 hPa 0,0 l/m 0 min 0 min 0,0 UV-I 0 W/m 7,7 km/h (2 Bft)
25.12.2013 05:44 8,7 C 7,2 C 97 % 985,7 hPa 0,0 l/m 0 min 0 min 0,0 UV-I 0 W/m 12,9 km/h (3 Bft)
25.12.2013 05:46 8,7 C 7,2 C 97 % 985,8 hPa 0,0 l/m 0 min 0 min 0,0 UV-I 0 W/m 20,6 km/h (4 Bft)
25.12.2013 05:48 8,7 C 7,2 C 97 % 985,8 hPa 0,0 l/m 0 min 0 min 0,0 UV-I 0 W/m 23,2 km/h (4 Bft)
25.12.2013 05:50 8,7 C 7,2 C 97 % 986,0 hPa 0,0 l/m 0 min 0 min 0,0 UV-I 0 W/m 23,2 km/h (4 Bft)
25.12.2013 05:52 8,7 C 7,2 C 97 % 986,0 hPa 0,0 l/m 0 min 0 min 0,0 UV-I 0 W/m 12,9 km/h (3 Bft)
25.12.2013 05:54 8,7 C 7,2 C 97 % 986,1 hPa 0,0 l/m 0 min 0 min 0,0 UV-I 0 W/m 20,6 km/h (4 Bft)
25.12.2013 05:56 8,7 C 7,2 C 97 % 986,2 hPa 0,0 l/m 0 min 0 min 0,0 UV-I 0 W/m 10,3 km/h (2 Bft)
25.12.2013 05:58 8,7 C 7,2 C 96 % 986,2 hPa 0,0 l/m 0 min 0 min 0,0 UV-I 0 W/m 10,3 km/h (2 Bft)
25.12.2013 06:00 8,7 C 7,2 C 96 % 986,2 hPa 0,0 l/m 0 min 0 min 0,0 UV-I 0 W/m 5,1 km/h (1 Bft)
25.12.2013 06:02 8,7 C 7,2 C 96 % 986,3 hPa 0,0 l/m 0 min 0 min 0,0 UV-I 0 W/m 15,4 km/h (3 Bft)
25.12.2013 06:04 8,7 C 7,2 C 96 % 986,3 hPa 0,0 l/m 0 min 0 min 0,0 UV-I 0 W/m 15,4 km/h (3 Bft)
25.12.2013 06:06 8,7 C 7,2 C 96 % 986,3 hPa 0,0 l/m 0 min 0 min 0,0 UV-I 0 W/m 7,7 km/h (2 Bft)
25.12.2013 06:08 8,8 C 7,2 C 96 % 986,3 hPa 0,0 l/m 0 min 0 min 0,0 UV-I 0 W/m 23,2 km/h (4 Bft)
25.12.2013 06:10 8,8 C 7,2 C 96 % 986,3 hPa 0,0 l/m 0 min 0 min 0,0 UV-I 0 W/m 20,6 km/h (4 Bft)
25.12.2013 06:12 8,8 C 7,2 C 96 % 986,3 hPa 0,0 l/m 0 min 0 min 0,0 UV-I 0 W/m 10,3 km/h (2 Bft)
25.12.2013 06:14 8,8 C 7,2 C 96 % 986,4 hPa 0,0 l/m 0 min 0 min 0,0 UV-I 0 W/m 5,1 km/h (1 Bft)
25.12.2013 06:16 8,8 C 7,2 C 96 % 986,4 hPa 0,0 l/m 0 min 0 min 0,0 UV-I 0 W/m 12,9 km/h (3 Bft)
25.12.2013 06:18 8,8 C 7,2 C 96 % 986,6 hPa 0,0 l/m 0 min 0 min 0,0 UV-I 0 W/m 12,9 km/h (3 Bft)
25.12.2013 06:20 8,8 C 7,2 C 96 % 986,5 hPa 0,0 l/m 0 min 0 min 0,0 UV-I 0 W/m 10,3 km/h (2 Bft)
25.12.2013 06:22 8,8 C 7,2 C 96 % 986,5 hPa 0,0 l/m 0 min 0 min 0,0 UV-I 0 W/m 18,0 km/h (3 Bft)
25.12.2013 06:24 8,8 C 7,2 C 96 % 986,6 hPa 0,0 l/m 0 min 0 min 0,0 UV-I 0 W/m 5,1 km/h (1 Bft)
25.12.2013 06:26 8,8 C 7,2 C 96 % 986,6 hPa 0,0 l/m 0 min 0 min 0,0 UV-I 0 W/m 12,9 km/h (3 Bft)
25.12.2013 06:28 8,8 C 7,2 C 96 % 986,8 hPa 0,0 l/m 0 min 0 min 0,0 UV-I 0 W/m 7,7 km/h (2 Bft)
25.12.2013 06:30 8,8 C 7,2 C 96 % 986,9 hPa 0,0 l/m 0 min 0 min 0,0 UV-I 0 W/m 10,3 km/h (2 Bft)
25.12.2013 06:32 8,8 C 7,2 C 96 % 986,9 hPa 0,0 l/m 0 min 0 min 0,0 UV-I 0 W/m 15,4 km/h (3 Bft)
25.12.2013 06:34 8,8 C 7,2 C 95 % 986,9 hPa 0,0 l/m 0 min 0 min 0,0 UV-I 0 W/m 7,7 km/h (2 Bft)
25.12.2013 06:36 8,8 C 7,2 C 95 % 987,0 hPa 0,0 l/m 0 min 0 min 0,0 UV-I 0 W/m 18,0 km/h (3 Bft)
25.12.2013 06:38 8,8 C 7,2 C 95 % 987,0 hPa 0,0 l/m 0 min 0 min 0,0 UV-I 0 W/m 23,2 km/h (4 Bft)
25.12.2013 06:40 8,8 C 7,2 C 95 % 987,1 hPa 0,0 l/m 0 min 0 min 0,0 UV-I 0 W/m 18,0 km/h (3 Bft)
25.12.2013 06:42 8,9 C 7,2 C 95 % 987,1 hPa 0,0 l/m 0 min 0 min 0,0 UV-I 0 W/m 10,3 km/h (2 Bft)
25.12.2013 06:44 8,9 C 7,2 C 95 % 987,3 hPa 0,0 l/m 0 min 0 min 0,0 UV-I 0 W/m 18,0 km/h (3 Bft)
25.12.2013 06:46 8,9 C 7,2 C 95 % 987,2 hPa 0,0 l/m 0 min 0 min 0,0 UV-I 0 W/m 12,9 km/h (3 Bft)
25.12.2013 06:48 8,9 C 7,2 C 95 % 987,3 hPa 0,0 l/m 0 min 0 min 0,0 UV-I 0 W/m 12,9 km/h (3 Bft)
25.12.2013 06:50 8,9 C 7,2 C 95 % 987,3 hPa 0,0 l/m 0 min 0 min 0,0 UV-I 0 W/m 15,4 km/h (3 Bft)
25.12.2013 06:52 8,9 C 7,2 C 94 % 987,4 hPa 0,0 l/m 0 min 0 min 0,0 UV-I 0 W/m 12,9 km/h (3 Bft)
25.12.2013 06:54 8,9 C 7,2 C 94 % 987,4 hPa 0,0 l/m 0 min 0 min 0,0 UV-I 0 W/m 10,3 km/h (2 Bft)
25.12.2013 06:56 8,9 C 7,2 C 94 % 987,4 hPa 0,0 l/m 0 min 0 min 0,0 UV-I 0 W/m 15,4 km/h (3 Bft)
25.12.2013 06:58 8,9 C 7,2 C 94 % 987,4 hPa 0,0 l/m 0 min 0 min 0,0 UV-I 0 W/m 7,7 km/h (2 Bft)
25.12.2013 07:00 8,9 C 7,2 C 94 % 987,4 hPa 0,0 l/m 0 min 0 min 0,0 UV-I 0 W/m 15,4 km/h (3 Bft)
25.12.2013 07:02 8,9 C 7,2 C 94 % 987,5 hPa 0,0 l/m 0 min 0 min 0,0 UV-I 0 W/m 5,1 km/h (1 Bft)
25.12.2013 07:04 8,9 C 7,2 C 94 % 987,6 hPa 0,0 l/m 0 min 0 min 0,0 UV-I 0 W/m 12,9 km/h (3 Bft)
25.12.2013 07:06 8,9 C 7,2 C 93 % 987,6 hPa 0,0 l/m 0 min 0 min 0,0 UV-I 0 W/m 20,6 km/h (4 Bft)
25.12.2013 07:08 8,9 C 7,2 C 93 % 987,6 hPa 0,0 l/m 0 min 0 min 0,0 UV-I 0 W/m 12,9 km/h (3 Bft)
25.12.2013 07:10 8,9 C 7,2 C 93 % 987,6 hPa 0,0 l/m 0 min 0 min 0,0 UV-I 0 W/m 5,1 km/h (1 Bft)
25.12.2013 07:12 8,9 C 7,2 C 93 % 987,6 hPa 0,0 l/m 0 min 0 min 0,0 UV-I 0 W/m 10,3 km/h (2 Bft)
25.12.2013 07:14 8,9 C 7,2 C 93 % 987,6 hPa 0,0 l/m 0 min 0 min 0,0 UV-I 0 W/m 15,4 km/h (3 Bft)
25.12.2013 07:16 8,9 C 7,2 C 93 % 987,7 hPa 0,0 l/m 0 min 0 min 0,0 UV-I 0 W/m 12,9 km/h (3 Bft)
25.12.2013 07:18 8,9 C 7,2 C 92 % 987,8 hPa 0,0 l/m 0 min 0 min 0,0 UV-I 0 W/m 2,6 km/h (1 Bft)
25.12.2013 07:20 8,9 C 7,2 C 92 % 987,7 hPa 0,0 l/m 0 min 0 min 0,0 UV-I 0 W/m 25,7 km/h (4 Bft)
25.12.2013 07:22 8,8 C 6,7 C 92 % 987,9 hPa 0,0 l/m 0 min 0 min 0,0 UV-I 0 W/m 10,3 km/h (2 Bft)
25.12.2013 07:24 8,8 C 6,7 C 92 % 987,9 hPa 0,0 l/m 0 min 0 min 0,0 UV-I 0 W/m 5,1 km/h (1 Bft)
25.12.2013 07:26 8,8 C 6,7 C 92 % 987,9 hPa 0,0 l/m 0 min 0 min 0,0 UV-I 0 W/m 10,3 km/h (2 Bft)
25.12.2013 07:28 8,8 C 6,7 C 91 % 988,1 hPa 0,0 l/m 0 min 0 min 0,0 UV-I 0 W/m 20,6 km/h (4 Bft)
25.12.2013 07:30 8,8 C 6,7 C 91 % 988,1 hPa 0,0 l/m 0 min 0 min 0,0 UV-I 0 W/m 18,0 km/h (3 Bft)
25.12.2013 07:32 8,8 C 6,7 C 91 % 988,1 hPa 0,0 l/m 0 min 0 min 0,0 UV-I 0 W/m 12,9 km/h (3 Bft)
25.12.2013 07:34 8,7 C 6,7 C 91 % 988,1 hPa 0,0 l/m 0 min 0 min 0,0 UV-I 0 W/m 10,3 km/h (2 Bft)
25.12.2013 07:36 8,7 C 6,7 C 90 % 988,3 hPa 0,0 l/m 0 min 0 min 0,0 UV-I 0 W/m 18,0 km/h (3 Bft)
25.12.2013 07:38 8,7 C 6,7 C 90 % 988,3 hPa 0,0 l/m 0 min 0 min 0,0 UV-I 0 W/m 10,3 km/h (2 Bft)
25.12.2013 07:40 8,7 C 6,7 C 90 % 988,3 hPa 0,0 l/m 0 min 0 min 0,0 UV-I 0 W/m 25,7 km/h (4 Bft)
25.12.2013 07:42 8,7 C 6,7 C 89 % 988,5 hPa 0,0 l/m 0 min 0 min 0,0 UV-I 0 W/m 7,7 km/h (2 Bft)
25.12.2013 07:44 8,7 C 6,7 C 89 % 988,6 hPa 0,0 l/m 0 min 0 min 0,0 UV-I 0 W/m 18,0 km/h (3 Bft)
25.12.2013 07:46 8,7 C 6,7 C 89 % 988,6 hPa 0,0 l/m 0 min 0 min 0,0 UV-I 0 W/m 10,3 km/h (2 Bft)
25.12.2013 07:48 8,7 C 6,7 C 88 % 988,6 hPa 0,0 l/m 0 min 0 min 0,0 UV-I 0 W/m 10,3 km/h (2 Bft)
25.12.2013 07:50 8,7 C 6,7 C 88 % 988,6 hPa 0,0 l/m 0 min 0 min 0,0 UV-I 0 W/m 20,6 km/h (4 Bft)
25.12.2013 07:52 8,6 C 6,7 C 88 % 988,7 hPa 0,0 l/m 0 min 0 min 0,0 UV-I 0 W/m 15,4 km/h (3 Bft)
25.12.2013 07:54 8,6 C 6,7 C 87 % 988,7 hPa 0,0 l/m 0 min 0 min 0,0 UV-I 0 W/m 18,0 km/h (3 Bft)
25.12.2013 07:56 8,6 C 6,7 C 87 % 988,6 hPa 0,0 l/m 0 min 0 min 0,0 UV-I 0 W/m 20,6 km/h (4 Bft)
25.12.2013 07:58 8,7 C 6,7 C 87 % 988,7 hPa 0,0 l/m 0 min 0 min 0,0 UV-I 0 W/m 12,9 km/h (3 Bft)
25.12.2013 08:00 8,6 C 6,7 C 87 % 988,7 hPa 0,0 l/m 0 min 0 min 0,0 UV-I 0 W/m 15,4 km/h (3 Bft)
25.12.2013 08:02 8,6 C 6,7 C 87 % 988,8 hPa 0,0 l/m 0 min 0 min 0,0 UV-I 0 W/m 12,9 km/h (3 Bft)
25.12.2013 08:04 8,6 C 6,7 C 87 % 988,8 hPa 0,0 l/m 0 min 0 min 0,0 UV-I 0 W/m 15,4 km/h (3 Bft)
25.12.2013 08:06 8,6 C 6,7 C 86 % 988,8 hPa 0,0 l/m 0 min 0 min 0,0 UV-I 0 W/m 10,3 km/h (2 Bft)
25.12.2013 08:08 8,6 C 6,7 C 86 % 988,9 hPa 0,0 l/m 0 min 0 min 0,0 UV-I 0 W/m 7,7 km/h (2 Bft)
25.12.2013 08:10 8,6 C 6,7 C 86 % 988,9 hPa 0,0 l/m 0 min 0 min 0,0 UV-I 0 W/m 10,3 km/h (2 Bft)
25.12.2013 08:12 8,6 C 6,7 C 87 % 988,9 hPa 0,0 l/m 0 min 0 min 0,0 UV-I 0 W/m 7,7 km/h (2 Bft)
25.12.2013 08:14 8,6 C 6,7 C 87 % 989,0 hPa 0,0 l/m 0 min 0 min 0,0 UV-I 0 W/m 5,1 km/h (1 Bft)
25.12.2013 08:16 8,6 C 6,7 C 87 % 989,0 hPa 0,0 l/m 0 min 0 min 0,0 UV-I 0 W/m 10,3 km/h (2 Bft)
25.12.2013 08:18 8,6 C 6,7 C 87 % 989,0 hPa 0,0 l/m 0 min 0 min 0,0 UV-I 0 W/m 12,9 km/h (3 Bft)
25.12.2013 08:20 8,5 C 6,7 C 87 % 989,1 hPa 0,0 l/m 0 min 0 min 0,0 UV-I 0 W/m 10,3 km/h (2 Bft)
25.12.2013 08:22 8,5 C 6,7 C 87 % 989,1 hPa 0,0 l/m 0 min 0 min 0,0 UV-I 0 W/m 10,3 km/h (2 Bft)
25.12.2013 08:24 8,5 C 6,7 C 86 % 989,0 hPa 0,0 l/m 0 min 0 min 0,0 UV-I 0 W/m 5,1 km/h (1 Bft)
25.12.2013 08:26 8,4 C 6,7 C 87 % 989,0 hPa 0,0 l/m 0 min 0 min 0,0 UV-I 0 W/m 0,0 km/h (0 Bft)
25.12.2013 08:28 8,4 C 6,7 C 87 % 988,9 hPa 0,0 l/m 0 min 0 min 0,0 UV-I 0 W/m 0,0 km/h (0 Bft)
25.12.2013 08:30 8,4 C 6,1 C 87 % 988,9 hPa 0,0 l/m 0 min 0 min 0,0 UV-I 0 W/m 0,0 km/h (0 Bft)
25.12.2013 08:32 8,4 C 6,1 C 87 % 988,9 hPa 0,0 l/m 0 min 0 min 0,0 UV-I 0 W/m 0,0 km/h (0 Bft)
25.12.2013 08:34 8,4 C 6,1 C 87 % 988,9 hPa 0,0 l/m 0 min 0 min 0,0 UV-I 0 W/m 0,0 km/h (0 Bft)
25.12.2013 08:36 8,4 C 6,1 C 87 % 988,9 hPa 0,0 l/m 0 min 0 min 0,0 UV-I 0 W/m 7,7 km/h (2 Bft)
25.12.2013 08:38 8,4 C 6,1 C 87 % 988,9 hPa 0,0 l/m 0 min 0 min 0,0 UV-I 0 W/m 10,3 km/h (2 Bft)
25.12.2013 08:40 8,4 C 6,1 C 87 % 988,9 hPa 0,0 l/m 0 min 0 min 0,0 UV-I 0 W/m 7,7 km/h (2 Bft)
25.12.2013 08:42 8,3 C 6,1 C 87 % 988,9 hPa 0,0 l/m 0 min 0 min 0,0 UV-I 0 W/m 10,3 km/h (2 Bft)
25.12.2013 08:44 8,3 C 6,1 C 87 % 988,8 hPa 0,0 l/m 0 min 0 min 0,0 UV-I 0 W/m 15,4 km/h (3 Bft)
25.12.2013 08:46 8,3 C 6,1 C 87 % 988,8 hPa 0,0 l/m 0 min 0 min 0,0 UV-I 5 W/m 7,7 km/h (2 Bft)
25.12.2013 08:48 8,3 C 6,1 C 87 % 988,8 hPa 0,0 l/m 0 min 0 min 0,0 UV-I 5 W/m 7,7 km/h (2 Bft)
25.12.2013 08:50 8,3 C 6,1 C 87 % 988,8 hPa 0,0 l/m 0 min 0 min 0,0 UV-I 7 W/m 5,1 km/h (1 Bft)
25.12.2013 08:52 8,2 C 6,1 C 87 % 988,8 hPa 0,0 l/m 0 min 0 min 0,0 UV-I 9 W/m 5,1 km/h (1 Bft)
25.12.2013 08:54 8,2 C 6,1 C 87 % 988,9 hPa 0,0 l/m 0 min 0 min 0,0 UV-I 9 W/m 0,0 km/h (0 Bft)
25.12.2013 08:56 8,2 C 6,1 C 87 % 989,0 hPa 0,0 l/m 0 min 0 min 0,0 UV-I 11 W/m 7,7 km/h (2 Bft)
25.12.2013 08:58 8,2 C 6,1 C 87 % 989,0 hPa 0,0 l/m 0 min 0 min 0,0 UV-I 11 W/m 7,7 km/h (2 Bft)
25.12.2013 09:00 8,2 C 6,1 C 87 % 989,1 hPa 0,0 l/m 0 min 0 min 0,0 UV-I 12 W/m 0,0 km/h (0 Bft)
25.12.2013 09:02 8,1 C 6,1 C 87 % 989,1 hPa 0,0 l/m 0 min 0 min 0,0 UV-I 12 W/m 7,7 km/h (2 Bft)
25.12.2013 09:04 8,1 C 6,1 C 87 % 989,2 hPa 0,0 l/m 0 min 0 min 0,0 UV-I 12 W/m 7,7 km/h (2 Bft)
25.12.2013 09:06 8,1 C 6,1 C 87 % 989,1 hPa 0,0 l/m 0 min 0 min 0,0 UV-I 12 W/m 5,1 km/h (1 Bft)
25.12.2013 09:08 8,1 C 6,1 C 88 % 989,2 hPa 0,0 l/m 0 min 0 min 0,0 UV-I 14 W/m 5,1 km/h (1 Bft)
25.12.2013 09:10 8,1 C 6,1 C 87 % 989,3 hPa 0,0 l/m 0 min 0 min 0,0 UV-I 16 W/m 0,0 km/h (0 Bft)
25.12.2013 09:12 8,1 C 6,1 C 87 % 989,2 hPa 0,0 l/m 0 min 0 min 0,0 UV-I 16 W/m 5,1 km/h (1 Bft)
25.12.2013 09:14 8,1 C 6,1 C 87 % 989,1 hPa 0,0 l/m 0 min 0 min 0,0 UV-I 16 W/m 5,1 km/h (1 Bft)
25.12.2013 09:16 8,1 C 6,1 C 87 % 989,2 hPa 0,0 l/m 0 min 0 min 0,0 UV-I 18 W/m 0,0 km/h (0 Bft)
25.12.2013 09:18 8,1 C 6,1 C 88 % 989,3 hPa 0,0 l/m 0 min 0 min 0,0 UV-I 16 W/m 7,7 km/h (2 Bft)
25.12.2013 09:20 8,0 C 6,7 C 88 % 989,3 hPa 0,0 l/m 0 min 0 min 0,0 UV-I 16 W/m 0,0 km/h (0 Bft)
25.12.2013 09:22 8,0 C 6,7 C 88 % 989,2 hPa 0,0 l/m 0 min 0 min 0,0 UV-I 16 W/m 2,6 km/h (1 Bft)
25.12.2013 09:24 8,0 C 6,1 C 88 % 989,2 hPa 0,0 l/m 0 min 0 min 0,0 UV-I 18 W/m 0,0 km/h (0 Bft)
25.12.2013 09:26 8,0 C 6,1 C 88 % 989,4 hPa 0,0 l/m 0 min 0 min 0,0 UV-I 18 W/m 0,0 km/h (0 Bft)
25.12.2013 09:28 8,0 C 6,1 C 88 % 989,4 hPa 0,0 l/m 0 min 0 min 0,0 UV-I 19 W/m 0,0 km/h (0 Bft)
25.12.2013 09:30 8,0 C 6,1 C 88 % 989,4 hPa 0,0 l/m 0 min 0 min 0,0 UV-I 21 W/m 2,6 km/h (1 Bft)
25.12.2013 09:32 8,0 C 6,1 C 88 % 989,4 hPa 0,0 l/m 0 min 0 min 0,0 UV-I 23 W/m 0,0 km/h (0 Bft)
25.12.2013 09:34 8,0 C 6,1 C 88 % 989,4 hPa 0,0 l/m 0 min 0 min 0,0 UV-I 23 W/m 0,0 km/h (0 Bft)
25.12.2013 09:36 8,0 C 6,1 C 88 % 989,4 hPa 0,0 l/m 0 min 0 min 0,0 UV-I 21 W/m 0,0 km/h (0 Bft)
25.12.2013 09:38 7,9 C 6,1 C 88 % 989,4 hPa 0,0 l/m 0 min 0 min 0,0 UV-I 23 W/m 0,0 km/h (0 Bft)
25.12.2013 09:40 7,9 C 6,1 C 88 % 989,5 hPa 0,0 l/m 0 min 0 min 0,0 UV-I 25 W/m 0,0 km/h (0 Bft)
25.12.2013 09:42 7,9 C 6,1 C 88 % 989,4 hPa 0,0 l/m 0 min 0 min 0,0 UV-I 26 W/m 0,0 km/h (0 Bft)
25.12.2013 09:44 7,9 C 6,1 C 88 % 989,4 hPa 0,0 l/m 0 min 0 min 0,0 UV-I 26 W/m 0,0 km/h (0 Bft)
25.12.2013 09:46 7,9 C 6,1 C 88 % 989,4 hPa 0,0 l/m 0 min 0 min 0,0 UV-I 28 W/m 0,0 km/h (0 Bft)
25.12.2013 09:48 7,9 C 6,1 C 88 % 989,5 hPa 0,0 l/m 0 min 0 min 0,0 UV-I 32 W/m 0,0 km/h (0 Bft)
25.12.2013 09:50 7,9 C 6,1 C 88 % 989,5 hPa 0,0 l/m 0 min 0 min 0,0 UV-I 35 W/m 0,0 km/h (0 Bft)
25.12.2013 09:52 7,9 C 6,1 C 88 % 989,6 hPa 0,0 l/m 0 min 0 min 0,0 UV-I 39 W/m 0,0 km/h (0 Bft)
25.12.2013 09:54 7,9 C 6,1 C 88 % 989,7 hPa 0,0 l/m 0 min 0 min 0,0 UV-I 40 W/m 0,0 km/h (0 Bft)
25.12.2013 09:56 7,9 C 6,1 C 88 % 989,6 hPa 0,0 l/m 0 min 0 min 0,0 UV-I 39 W/m 0,0 km/h (0 Bft)
25.12.2013 09:58 7,9 C 6,1 C 88 % 989,5 hPa 0,0 l/m 0 min 0 min 0,0 UV-I 33 W/m 0,0 km/h (0 Bft)
25.12.2013 10:00 7,9 C 5,6 C 88 % 989,5 hPa 0,0 l/m 0 min 0 min 0,0 UV-I 28 W/m 0,0 km/h (0 Bft)
25.12.2013 10:02 7,9 C 5,6 C 88 % 989,5 hPa 0,0 l/m 0 min 0 min 0,0 UV-I 28 W/m 0,0 km/h (0 Bft)
25.12.2013 10:04 7,9 C 5,6 C 89 % 989,6 hPa 0,0 l/m 0 min 0 min 0,0 UV-I 33 W/m 0,0 km/h (0 Bft)
25.12.2013 10:06 7,9 C 5,6 C 89 % 989,6 hPa 0,0 l/m 0 min 0 min 0,0 UV-I 56 W/m 0,0 km/h (0 Bft)
25.12.2013 10:08 7,9 C 5,6 C 89 % 989,7 hPa 0,0 l/m 0 min 0 min 0,0 UV-I 69 W/m 0,0 km/h (0 Bft)
25.12.2013 10:10 7,8 C 6,1 C 89 % 989,7 hPa 0,0 l/m 0 min 0 min 0,0 UV-I 79 W/m 0,0 km/h (0 Bft)
25.12.2013 10:12 7,8 C 6,1 C 89 % 989,7 hPa 0,0 l/m 0 min 0 min 0,0 UV-I 83 W/m 7,7 km/h (2 Bft)
25.12.2013 10:14 7,8 C 6,1 C 89 % 989,9 hPa 0,0 l/m 0 min 0 min 0,0 UV-I 72 W/m 7,7 km/h (2 Bft)
25.12.2013 10:16 7,8 C 6,7 C 89 % 989,9 hPa 0,0 l/m 0 min 0 min 0,0 UV-I 54 W/m 5,1 km/h (1 Bft)
25.12.2013 10:18 7,8 C 6,7 C 89 % 990,0 hPa 0,0 l/m 0 min 0 min 0,0 UV-I 42 W/m 0,0 km/h (0 Bft)
25.12.2013 10:20 7,8 C 6,7 C 89 % 990,0 hPa 0,0 l/m 0 min 0 min 0,0 UV-I 44 W/m 0,0 km/h (0 Bft)
25.12.2013 10:22 7,8 C 6,7 C 89 % 989,9 hPa 0,0 l/m 0 min 0 min 0,0 UV-I 53 W/m 0,0 km/h (0 Bft)
25.12.2013 10:24 7,8 C 6,1 C 89 % 989,9 hPa 0,0 l/m 0 min 0 min 0,0 UV-I 49 W/m 2,6 km/h (1 Bft)
25.12.2013 10:26 7,8 C 6,1 C 89 % 989,8 hPa 0,0 l/m 0 min 0 min 0,0 UV-I 47 W/m 0,0 km/h (0 Bft)
25.12.2013 10:28 7,8 C 6,1 C 89 % 989,9 hPa 0,0 l/m 0 min 0 min 0,0 UV-I 47 W/m 0,0 km/h (0 Bft)
25.12.2013 10:30 7,8 C 6,1 C 89 % 990,0 hPa 0,0 l/m 0 min 0 min 0,0 UV-I 42 W/m 0,0 km/h (0 Bft)
25.12.2013 10:32 7,8 C 6,1 C 89 % 990,1 hPa 0,0 l/m 0 min 0 min 0,0 UV-I 44 W/m 0,0 km/h (0 Bft)
25.12.2013 10:34 7,8 C 6,1 C 89 % 990,1 hPa 0,0 l/m 0 min 0 min 0,0 UV-I 54 W/m 0,0 km/h (0 Bft)
25.12.2013 10:36 7,8 C 6,1 C 89 % 990,2 hPa 0,0 l/m 0 min 0 min 0,0 UV-I 58 W/m 0,0 km/h (0 Bft)
25.12.2013 10:38 7,8 C 6,1 C 89 % 990,3 hPa 0,0 l/m 0 min 0 min 0,0 UV-I 63 W/m 0,0 km/h (0 Bft)
25.12.2013 10:40 7,8 C 6,1 C 89 % 990,4 hPa 0,0 l/m 0 min 0 min 0,0 UV-I 81 W/m 5,1 km/h (1 Bft)
25.12.2013 10:42 7,8 C 6,1 C 89 % 990,3 hPa 0,0 l/m 2 min 0 min 0,0 UV-I 172 W/m 0,0 km/h (0 Bft)
25.12.2013 10:44 7,8 C 6,1 C 90 % 990,2 hPa 0,0 l/m 2 min 0 min 0,0 UV-I 190 W/m 0,0 km/h (0 Bft)
25.12.2013 10:46 7,9 C 6,7 C 90 % 990,2 hPa 0,0 l/m 2 min 0 min 0,0 UV-I 190 W/m 0,0 km/h (0 Bft)
25.12.2013 10:48 8,1 C 6,7 C 90 % 990,2 hPa 0,0 l/m 2 min 0 min 0,0 UV-I 186 W/m 0,0 km/h (0 Bft)
25.12.2013 10:50 8,2 C 6,7 C 90 % 990,3 hPa 0,0 l/m 2 min 0 min 0,0 UV-I 204 W/m 2,6 km/h (1 Bft)
25.12.2013 10:52 8,4 C 7,2 C 89 % 990,4 hPa 0,0 l/m 0 min 0 min 0,0 UV-I 97 W/m 0,0 km/h (0 Bft)
25.12.2013 10:54 8,5 C 7,2 C 89 % 990,4 hPa 0,0 l/m 0 min 0 min 0,0 UV-I 86 W/m 10,3 km/h (2 Bft)
25.12.2013 10:56 8,5 C 7,2 C 88 % 990,5 hPa 0,0 l/m 0 min 0 min 0,0 UV-I 93 W/m 12,9 km/h (3 Bft)
25.12.2013 10:58 8,5 C 7,2 C 87 % 990,4 hPa 0,0 l/m 0 min 0 min 0,0 UV-I 91 W/m 5,1 km/h (1 Bft)
25.12.2013 11:00 8,4 C 7,2 C 87 % 990,3 hPa 0,0 l/m 0 min 0 min 0,0 UV-I 83 W/m 7,7 km/h (2 Bft)
25.12.2013 11:02 8,4 C 7,2 C 87 % 990,1 hPa 0,0 l/m 0 min 0 min 0,0 UV-I 77 W/m 5,1 km/h (1 Bft)
25.12.2013 11:04 8,4 C 7,2 C 87 % 990,0 hPa 0,0 l/m 0 min 0 min 0,0 UV-I 79 W/m 0,0 km/h (0 Bft)
25.12.2013 11:06 8,4 C 7,2 C 87 % 989,9 hPa 0,0 l/m 0 min 0 min 0,0 UV-I 90 W/m 7,7 km/h (2 Bft)
25.12.2013 11:08 8,4 C 7,2 C 87 % 989,9 hPa 0,0 l/m 0 min 0 min 0,0 UV-I 97 W/m 12,9 km/h (3 Bft)
25.12.2013 11:10 8,4 C 7,2 C 87 % 989,9 hPa 0,0 l/m 0 min 0 min 0,0 UV-I 90 W/m 12,9 km/h (3 Bft)
25.12.2013 11:12 8,4 C 7,2 C 87 % 990,0 hPa 0,0 l/m 0 min 0 min 0,0 UV-I 84 W/m 5,1 km/h (1 Bft)
25.12.2013 11:14 8,4 C 7,2 C 87 % 990,0 hPa 0,0 l/m 0 min 0 min 0,0 UV-I 86 W/m 0,0 km/h (0 Bft)
25.12.2013 11:16 8,4 C 7,2 C 86 % 990,0 hPa 0,0 l/m 0 min 0 min 0,0 UV-I 93 W/m 12,9 km/h (3 Bft)
25.12.2013 11:18 8,4 C 7,2 C 86 % 990,0 hPa 0,0 l/m 0 min 0 min 0,0 UV-I 107 W/m 0,0 km/h (0 Bft)
25.12.2013 11:20 8,4 C 7,2 C 86 % 990,0 hPa 0,0 l/m 0 min 0 min 0,0 UV-I 116 W/m 0,0 km/h (0 Bft)
25.12.2013 11:22 8,4 C 7,2 C 86 % 990,0 hPa 0,0 l/m 0 min 0 min 0,0 UV-I 109 W/m 12,9 km/h (3 Bft)
25.12.2013 11:24 8,5 C 7,2 C 86 % 990,2 hPa 0,0 l/m 0 min 0 min 0,0 UV-I 100 W/m 5,1 km/h (1 Bft)
25.12.2013 11:26 8,5 C 7,2 C 85 % 990,2 hPa 0,0 l/m 0 min 0 min 0,0 UV-I 97 W/m 10,3 km/h (2 Bft)
25.12.2013 11:28 8,5 C 7,2 C 85 % 990,1 hPa 0,0 l/m 0 min 0 min 0,0 UV-I 100 W/m 12,9 km/h (3 Bft)
25.12.2013 11:30 8,5 C 7,2 C 85 % 990,1 hPa 0,0 l/m 0 min 0 min 0,0 UV-I 90 W/m 12,9 km/h (3 Bft)
25.12.2013 11:32 8,5 C 7,2 C 85 % 990,1 hPa 0,0 l/m 0 min 0 min 0,0 UV-I 86 W/m 7,7 km/h (2 Bft)
25.12.2013 11:34 8,5 C 7,2 C 84 % 990,4 hPa 0,0 l/m 0 min 0 min 0,0 UV-I 79 W/m 2,6 km/h (1 Bft)
25.12.2013 11:36 8,5 C 7,2 C 84 % 990,3 hPa 0,0 l/m 0 min 0 min 0,0 UV-I 74 W/m 7,7 km/h (2 Bft)
25.12.2013 11:38 8,5 C 7,2 C 85 % 990,3 hPa 0,0 l/m 0 min 0 min 0,0 UV-I 72 W/m 7,7 km/h (2 Bft)
25.12.2013 11:40 8,5 C 7,2 C 85 % 990,5 hPa 0,0 l/m 0 min 0 min 0,0 UV-I 72 W/m 10,3 km/h (2 Bft)
25.12.2013 11:42 8,4 C 7,2 C 85 % 990,3 hPa 0,0 l/m 0 min 0 min 0,0 UV-I 76 W/m 0,0 km/h (0 Bft)
25.12.2013 11:44 8,4 C 7,2 C 85 % 990,2 hPa 0,0 l/m 0 min 0 min 0,0 UV-I 88 W/m 2,6 km/h (1 Bft)
25.12.2013 11:46 8,4 C 7,2 C 85 % 990,2 hPa 0,0 l/m 0 min 0 min 0,0 UV-I 109 W/m 0,0 km/h (0 Bft)
25.12.2013 11:48 8,4 C 7,2 C 85 % 990,1 hPa 0,0 l/m 0 min 0 min 0,0 UV-I 102 W/m 0,0 km/h (0 Bft)
25.12.2013 11:50 8,4 C 7,2 C 85 % 990,5 hPa 0,0 l/m 0 min 0 min 0,0 UV-I 88 W/m 5,1 km/h (1 Bft)
25.12.2013 11:52 8,4 C 7,2 C 85 % 990,6 hPa 0,0 l/m 0 min 0 min 0,0 UV-I 84 W/m 12,9 km/h (3 Bft)
25.12.2013 11:54 8,4 C 7,2 C 85 % 990,6 hPa 0,0 l/m 0 min 0 min 0,0 UV-I 90 W/m 5,1 km/h (1 Bft)
25.12.2013 11:56 8,4 C 7,2 C 85 % 990,6 hPa 0,0 l/m 0 min 0 min 0,0 UV-I 100 W/m 5,1 km/h (1 Bft)
25.12.2013 11:58 8,4 C 7,2 C 85 % 990,6 hPa 0,0 l/m 0 min 0 min 0,0 UV-I 95 W/m 0,0 km/h (0 Bft)
25.12.2013 12:00 8,4 C 7,2 C 85 % 990,7 hPa 0,0 l/m 0 min 0 min 0,0 UV-I 90 W/m 5,1 km/h (1 Bft)
25.12.2013 12:02 8,4 C 7,2 C 85 % 990,7 hPa 0,0 l/m 0 min 0 min 0,0 UV-I 81 W/m 10,3 km/h (2 Bft)
25.12.2013 12:04 8,4 C 7,2 C 85 % 990,8 hPa 0,0 l/m 0 min 0 min 0,0 UV-I 84 W/m 0,0 km/h (0 Bft)
25.12.2013 12:06 8,4 C 7,2 C 85 % 990,7 hPa 0,0 l/m 0 min 0 min 0,0 UV-I 88 W/m 0,0 km/h (0 Bft)
25.12.2013 12:08 8,4 C 7,2 C 85 % 990,7 hPa 0,0 l/m 0 min 0 min 0,0 UV-I 90 W/m 12,9 km/h (3 Bft)
25.12.2013 12:10 8,4 C 7,2 C 84 % 990,7 hPa 0,0 l/m 0 min 0 min 0,0 UV-I 91 W/m 0,0 km/h (0 Bft)
25.12.2013 12:12 8,5 C 7,2 C 84 % 990,7 hPa 0,0 l/m 0 min 0 min 0,0 UV-I 98 W/m 2,6 km/h (1 Bft)
25.12.2013 12:14 8,5 C 7,2 C 84 % 990,7 hPa 0,0 l/m 0 min 0 min 0,0 UV-I 113 W/m 0,0 km/h (0 Bft)
25.12.2013 12:16 8,6 C 7,2 C 84 % 990,5 hPa 0,0 l/m 0 min 0 min 0,0 UV-I 116 W/m 7,7 km/h (2 Bft)
25.12.2013 12:18 8,6 C 7,2 C 84 % 990,3 hPa 0,0 l/m 0 min 0 min 0,0 UV-I 130 W/m 0,0 km/h (0 Bft)
25.12.2013 12:20 8,6 C 7,2 C 84 % 990,4 hPa 0,0 l/m 0 min 0 min 0,0 UV-I 139 W/m 7,7 km/h (2 Bft)
25.12.2013 12:22 8,6 C 7,8 C 84 % 990,5 hPa 0,0 l/m 0 min 0 min 0,0 UV-I 118 W/m 0,0 km/h (0 Bft)
25.12.2013 12:24 8,6 C 7,2 C 84 % 990,7 hPa 0,0 l/m 0 min 0 min 0,0 UV-I 95 W/m 10,3 km/h (2 Bft)
25.12.2013 12:26 8,6 C 7,2 C 84 % 990,6 hPa 0,0 l/m 0 min 0 min 0,0 UV-I 81 W/m 12,9 km/h (3 Bft)
25.12.2013 12:28 8,6 C 7,2 C 84 % 990,7 hPa 0,0 l/m 0 min 0 min 0,0 UV-I 77 W/m 0,0 km/h (0 Bft)
25.12.2013 12:30 8,6 C 7,2 C 84 % 990,8 hPa 0,0 l/m 0 min 0 min 0,0 UV-I 83 W/m 7,7 km/h (2 Bft)
25.12.2013 12:32 8,5 C 7,2 C 84 % 990,7 hPa 0,0 l/m 0 min 0 min 0,0 UV-I 86 W/m 0,0 km/h (0 Bft)
25.12.2013 12:34 8,5 C 7,2 C 84 % 990,7 hPa 0,0 l/m 0 min 0 min 0,0 UV-I 86 W/m 2,6 km/h (1 Bft)
25.12.2013 12:36 8,5 C 7,2 C 83 % 990,7 hPa 0,0 l/m 0 min 0 min 0,0 UV-I 83 W/m 0,0 km/h (0 Bft)
25.12.2013 12:38 8,5 C 7,2 C 83 % 990,7 hPa 0,0 l/m 0 min 0 min 0,0 UV-I 81 W/m 5,1 km/h (1 Bft)
25.12.2013 12:40 8,5 C 7,2 C 83 % 990,8 hPa 0,0 l/m 0 min 0 min 0,0 UV-I 84 W/m 2,6 km/h (1 Bft)
25.12.2013 12:42 8,5 C 7,2 C 83 % 990,7 hPa 0,0 l/m 0 min 0 min 0,0 UV-I 83 W/m 7,7 km/h (2 Bft)
25.12.2013 12:44 8,5 C 7,2 C 82 % 990,5 hPa 0,0 l/m 0 min 0 min 0,0 UV-I 86 W/m 10,3 km/h (2 Bft)
25.12.2013 12:46 8,5 C 7,2 C 83 % 990,4 hPa 0,0 l/m 0 min 0 min 0,0 UV-I 93 W/m 7,7 km/h (2 Bft)
25.12.2013 12:48 8,5 C 7,2 C 83 % 990,4 hPa 0,0 l/m 0 min 0 min 0,0 UV-I 105 W/m 7,7 km/h (2 Bft)
25.12.2013 12:50 8,5 C 7,2 C 82 % 990,5 hPa 0,0 l/m 0 min 0 min 0,0 UV-I 104 W/m 10,3 km/h (2 Bft)
25.12.2013 12:52 8,5 C 7,2 C 82 % 990,6 hPa 0,0 l/m 0 min 0 min 0,0 UV-I 95 W/m 12,9 km/h (3 Bft)
25.12.2013 12:54 8,5 C 7,2 C 82 % 990,7 hPa 0,0 l/m 0 min 0 min 0,0 UV-I 83 W/m 5,1 km/h (1 Bft)
25.12.2013 12:56 8,5 C 7,2 C 82 % 990,7 hPa 0,0 l/m 0 min 0 min 0,0 UV-I 76 W/m 2,6 km/h (1 Bft)
25.12.2013 12:58 8,5 C 7,2 C 82 % 990,6 hPa 0,0 l/m 0 min 0 min 0,0 UV-I 76 W/m 2,6 km/h (1 Bft)
25.12.2013 13:00 8,5 C 7,2 C 82 % 990,6 hPa 0,0 l/m 0 min 0 min 0,0 UV-I 77 W/m 0,0 km/h (0 Bft)
25.12.2013 13:02 8,4 C 7,2 C 82 % 990,7 hPa 0,0 l/m 0 min 0 min 0,0 UV-I 83 W/m 7,7 km/h (2 Bft)
25.12.2013 13:04 8,4 C 7,2 C 82 % 990,8 hPa 0,0 l/m 0 min 0 min 0,0 UV-I 84 W/m 2,6 km/h (1 Bft)
25.12.2013 13:06 8,4 C 7,2 C 82 % 990,8 hPa 0,0 l/m 0 min 0 min 0,0 UV-I 88 W/m 7,7 km/h (2 Bft)
25.12.2013 13:08 8,4 C 7,2 C 81 % 990,8 hPa 0,0 l/m 0 min 0 min 0,0 UV-I 86 W/m 12,9 km/h (3 Bft)
25.12.2013 13:10 8,4 C 7,2 C 81 % 990,8 hPa 0,0 l/m 0 min 0 min 0,0 UV-I 83 W/m 7,7 km/h (2 Bft)
25.12.2013 13:12 8,4 C 7,2 C 80 % 990,8 hPa 0,0 l/m 0 min 0 min 0,0 UV-I 81 W/m 5,1 km/h (1 Bft)
25.12.2013 13:14 8,5 C 7,2 C 80 % 990,8 hPa 0,0 l/m 0 min 0 min 0,0 UV-I 77 W/m 0,0 km/h (0 Bft)
25.12.2013 13:16 8,5 C 7,2 C 80 % 990,9 hPa 0,0 l/m 0 min 0 min 0,0 UV-I 76 W/m 0,0 km/h (0 Bft)
25.12.2013 13:18 8,5 C 7,2 C 80 % 990,9 hPa 0,0 l/m 0 min 0 min 0,0 UV-I 76 W/m 5,1 km/h (1 Bft)
25.12.2013 13:20 8,5 C 7,2 C 80 % 991,0 hPa 0,0 l/m 0 min 0 min 0,0 UV-I 77 W/m 0,0 km/h (0 Bft)
25.12.2013 13:22 8,5 C 7,2 C 80 % 991,0 hPa 0,0 l/m 0 min 0 min 0,0 UV-I 77 W/m 0,0 km/h (0 Bft)
25.12.2013 13:24 8,5 C 7,2 C 80 % 991,0 hPa 0,0 l/m 0 min 0 min 0,0 UV-I 74 W/m 0,0 km/h (0 Bft)
25.12.2013 13:26 8,5 C 7,2 C 80 % 990,9 hPa 0,0 l/m 0 min 0 min 0,0 UV-I 70 W/m 0,0 km/h (0 Bft)
25.12.2013 13:28 8,5 C 7,2 C 80 % 990,9 hPa 0,0 l/m 0 min 0 min 0,0 UV-I 70 W/m 2,6 km/h (1 Bft)
25.12.2013 13:30 8,4 C 7,2 C 80 % 991,0 hPa 0,0 l/m 0 min 0 min 0,0 UV-I 69 W/m 12,9 km/h (3 Bft)
25.12.2013 13:32 8,4 C 7,2 C 80 % 991,0 hPa 0,0 l/m 0 min 0 min 0,0 UV-I 70 W/m 0,0 km/h (0 Bft)
25.12.2013 13:34 8,4 C 7,2 C 80 % 991,0 hPa 0,0 l/m 0 min 0 min 0,0 UV-I 70 W/m 5,1 km/h (1 Bft)
25.12.2013 13:36 8,4 C 7,2 C 80 % 991,1 hPa 0,0 l/m 0 min 0 min 0,0 UV-I 67 W/m 7,7 km/h (2 Bft)
25.12.2013 13:38 8,4 C 7,2 C 80 % 991,0 hPa 0,0 l/m 0 min 0 min 0,0 UV-I 67 W/m 7,7 km/h (2 Bft)
25.12.2013 13:40 8,4 C 7,2 C 80 % 991,0 hPa 0,0 l/m 0 min 0 min 0,0 UV-I 65 W/m 2,6 km/h (1 Bft)
25.12.2013 13:42 8,4 C 7,2 C 81 % 991,0 hPa 0,0 l/m 0 min 0 min 0,0 UV-I 65 W/m 0,0 km/h (0 Bft)
25.12.2013 13:44 8,4 C 7,2 C 80 % 991,0 hPa 0,0 l/m 0 min 0 min 0,0 UV-I 65 W/m 2,6 km/h (1 Bft)
25.12.2013 13:46 8,4 C 7,2 C 80 % 991,0 hPa 0,0 l/m 0 min 0 min 0,0 UV-I 65 W/m 10,3 km/h (2 Bft)
25.12.2013 13:48 8,4 C 7,2 C 80 % 990,9 hPa 0,0 l/m 0 min 0 min 0,0 UV-I 62 W/m 0,0 km/h (0 Bft)
25.12.2013 13:50 8,4 C 7,2 C 80 % 990,9 hPa 0,0 l/m 0 min 0 min 0,0 UV-I 63 W/m 7,7 km/h (2 Bft)
25.12.2013 13:52 8,4 C 7,2 C 81 % 990,8 hPa 0,0 l/m 0 min 0 min 0,0 UV-I 63 W/m 0,0 km/h (0 Bft)
25.12.2013 13:54 8,4 C 7,2 C 81 % 990,8 hPa 0,0 l/m 0 min 0 min 0,0 UV-I 60 W/m 2,6 km/h (1 Bft)
25.12.2013 13:56 8,4 C 7,2 C 80 % 990,9 hPa 0,0 l/m 0 min 0 min 0,0 UV-I 54 W/m 0,0 km/h (0 Bft)
25.12.2013 13:58 8,4 C 7,2 C 80 % 991,0 hPa 0,0 l/m 0 min 0 min 0,0 UV-I 56 W/m 0,0 km/h (0 Bft)
25.12.2013 14:00 8,4 C 6,7 C 80 % 990,9 hPa 0,0 l/m 0 min 0 min 0,0 UV-I 60 W/m 0,0 km/h (0 Bft)
25.12.2013 14:02 8,4 C 6,7 C 80 % 991,0 hPa 0,0 l/m 0 min 0 min 0,0 UV-I 60 W/m 2,6 km/h (1 Bft)
25.12.2013 14:04 8,4 C 6,7 C 80 % 991,0 hPa 0,0 l/m 0 min 0 min 0,0 UV-I 60 W/m 5,1 km/h (1 Bft)
25.12.2013 14:06 8,4 C 7,2 C 80 % 991,1 hPa 0,0 l/m 0 min 0 min 0,0 UV-I 58 W/m 7,7 km/h (2 Bft)
25.12.2013 14:08 8,4 C 7,2 C 80 % 991,1 hPa 0,0 l/m 0 min 0 min 0,0 UV-I 58 W/m 5,1 km/h (1 Bft)
25.12.2013 14:10 8,3 C 6,7 C 81 % 991,1 hPa 0,0 l/m 0 min 0 min 0,0 UV-I 58 W/m 5,1 km/h (1 Bft)
25.12.2013 14:12 8,3 C 6,7 C 81 % 991,1 hPa 0,0 l/m 0 min 0 min 0,0 UV-I 56 W/m 10,3 km/h (2 Bft)
25.12.2013 14:14 8,3 C 6,7 C 81 % 991,0 hPa 0,0 l/m 0 min 0 min 0,0 UV-I 58 W/m 0,0 km/h (0 Bft)
25.12.2013 14:16 8,3 C 6,7 C 81 % 990,9 hPa 0,0 l/m 0 min 0 min 0,0 UV-I 62 W/m 0,0 km/h (0 Bft)
25.12.2013 14:18 8,3 C 6,7 C 81 % 990,9 hPa 0,0 l/m 0 min 0 min 0,0 UV-I 67 W/m 0,0 km/h (0 Bft)
25.12.2013 14:20 8,3 C 6,7 C 81 % 990,9 hPa 0,0 l/m 0 min 0 min 0,0 UV-I 70 W/m 0,0 km/h (0 Bft)
25.12.2013 14:22 8,2 C 7,2 C 81 % 990,8 hPa 0,0 l/m 0 min 0 min 0,0 UV-I 70 W/m 0,0 km/h (0 Bft)
25.12.2013 14:24 8,2 C 7,2 C 81 % 990,7 hPa 0,0 l/m 0 min 0 min 0,0 UV-I 70 W/m 0,0 km/h (0 Bft)
25.12.2013 14:26 8,2 C 7,2 C 82 % 990,7 hPa 0,0 l/m 0 min 0 min 0,0 UV-I 67 W/m 0,0 km/h (0 Bft)
25.12.2013 14:28 8,3 C 7,2 C 82 % 990,7 hPa 0,0 l/m 0 min 0 min 0,0 UV-I 60 W/m 0,0 km/h (0 Bft)
25.12.2013 14:30 8,2 C 6,7 C 82 % 990,7 hPa 0,0 l/m 0 min 0 min 0,0 UV-I 54 W/m 0,0 km/h (0 Bft)
25.12.2013 14:32 8,2 C 6,7 C 82 % 990,8 hPa 0,0 l/m 0 min 0 min 0,0 UV-I 56 W/m 0,0 km/h (0 Bft)
25.12.2013 14:34 8,2 C 6,7 C 82 % 990,8 hPa 0,0 l/m 0 min 0 min 0,0 UV-I 58 W/m 0,0 km/h (0 Bft)
25.12.2013 14:36 8,2 C 6,7 C 82 % 990,8 hPa 0,0 l/m 0 min 0 min 0,0 UV-I 60 W/m 0,0 km/h (0 Bft)
25.12.2013 14:38 8,2 C 6,7 C 82 % 990,8 hPa 0,0 l/m 0 min 0 min 0,0 UV-I 62 W/m 0,0 km/h (0 Bft)
25.12.2013 14:40 8,2 C 6,7 C 82 % 990,9 hPa 0,0 l/m 0 min 0 min 0,0 UV-I 63 W/m 0,0 km/h (0 Bft)
25.12.2013 14:42 8,2 C 6,7 C 83 % 990,9 hPa 0,0 l/m 0 min 0 min 0,0 UV-I 65 W/m 0,0 km/h (0 Bft)
25.12.2013 14:44 8,2 C 6,7 C 83 % 990,9 hPa 0,0 l/m 0 min 0 min 0,0 UV-I 67 W/m 0,0 km/h (0 Bft)
25.12.2013 14:46 8,1 C 6,7 C 83 % 990,9 hPa 0,0 l/m 0 min 0 min 0,0 UV-I 65 W/m 7,7 km/h (2 Bft)
25.12.2013 14:48 8,2 C 6,7 C 83 % 991,0 hPa 0,0 l/m 0 min 0 min 0,0 UV-I 62 W/m 7,7 km/h (2 Bft)
25.12.2013 14:50 8,2 C 6,7 C 83 % 991,1 hPa 0,0 l/m 0 min 0 min 0,0 UV-I 60 W/m 0,0 km/h (0 Bft)
25.12.2013 14:52 8,2 C 6,7 C 83 % 991,1 hPa 0,0 l/m 0 min 0 min 0,0 UV-I 56 W/m 0,0 km/h (0 Bft)
25.12.2013 14:54 8,2 C 6,7 C 83 % 991,1 hPa 0,0 l/m 0 min 0 min 0,0 UV-I 54 W/m 12,9 km/h (3 Bft)
25.12.2013 14:56 8,2 C 6,7 C 83 % 991,1 hPa 0,0 l/m 0 min 0 min 0,0 UV-I 53 W/m 10,3 km/h (2 Bft)
25.12.2013 14:58 8,2 C 6,7 C 83 % 991,1 hPa 0,0 l/m 0 min 0 min 0,0 UV-I 53 W/m 0,0 km/h (0 Bft)
25.12.2013 15:00 8,2 C 6,7 C 83 % 991,2 hPa 0,0 l/m 0 min 0 min 0,0 UV-I 53 W/m 0,0 km/h (0 Bft)
25.12.2013 15:02 8,2 C 6,7 C 83 % 991,3 hPa 0,0 l/m 0 min 0 min 0,0 UV-I 53 W/m 7,7 km/h (2 Bft)
25.12.2013 15:04 8,2 C 6,7 C 83 % 991,5 hPa 0,0 l/m 0 min 0 min 0,0 UV-I 54 W/m 0,0 km/h (0 Bft)
25.12.2013 15:06 8,2 C 6,7 C 83 % 991,5 hPa 0,0 l/m 0 min 0 min 0,0 UV-I 53 W/m 0,0 km/h (0 Bft)
25.12.2013 15:08 8,2 C 6,7 C 83 % 991,5 hPa 0,0 l/m 0 min 0 min 0,0 UV-I 49 W/m 10,3 km/h (2 Bft)
25.12.2013 15:10 8,2 C 6,7 C 83 % 991,5 hPa 0,0 l/m 0 min 0 min 0,0 UV-I 46 W/m 5,1 km/h (1 Bft)
25.12.2013 15:12 8,2 C 6,7 C 83 % 991,5 hPa 0,0 l/m 0 min 0 min 0,0 UV-I 42 W/m 2,6 km/h (1 Bft)
25.12.2013 15:14 8,2 C 6,7 C 83 % 991,6 hPa 0,0 l/m 0 min 0 min 0,0 UV-I 39 W/m 7,7 km/h (2 Bft)
25.12.2013 15:16 8,2 C 6,7 C 83 % 991,6 hPa 0,0 l/m 0 min 0 min 0,0 UV-I 39 W/m 7,7 km/h (2 Bft)
25.12.2013 15:18 8,2 C 6,7 C 83 % 991,4 hPa 0,0 l/m 0 min 0 min 0,0 UV-I 40 W/m 0,0 km/h (0 Bft)
25.12.2013 15:20 8,2 C 6,7 C 83 % 991,5 hPa 0,0 l/m 0 min 0 min 0,0 UV-I 39 W/m 0,0 km/h (0 Bft)
25.12.2013 15:22 8,2 C 6,7 C 83 % 991,6 hPa 0,0 l/m 0 min 0 min 0,0 UV-I 39 W/m 2,6 km/h (1 Bft)
25.12.2013 15:24 8,2 C 6,7 C 83 % 991,6 hPa 0,0 l/m 0 min 0 min 0,0 UV-I 39 W/m 0,0 km/h (0 Bft)
25.12.2013 15:26 8,1 C 6,7 C 83 % 991,7 hPa 0,0 l/m 0 min 0 min 0,0 UV-I 39 W/m 5,1 km/h (1 Bft)
25.12.2013 15:28 8,1 C 6,7 C 83 % 991,7 hPa 0,0 l/m 0 min 0 min 0,0 UV-I 39 W/m 0,0 km/h (0 Bft)
25.12.2013 15:30 8,1 C 6,7 C 83 % 991,7 hPa 0,0 l/m 0 min 0 min 0,0 UV-I 35 W/m 10,3 km/h (2 Bft)
25.12.2013 15:32 8,1 C 6,7 C 83 % 991,7 hPa 0,0 l/m 0 min 0 min 0,0 UV-I 33 W/m 7,7 km/h (2 Bft)
25.12.2013 15:34 8,1 C 6,7 C 83 % 991,8 hPa 0,0 l/m 0 min 0 min 0,0 UV-I 30 W/m 0,0 km/h (0 Bft)
25.12.2013 15:36 8,1 C 6,7 C 83 % 991,7 hPa 0,0 l/m 0 min 0 min 0,0 UV-I 28 W/m 0,0 km/h (0 Bft)
25.12.2013 15:38 8,1 C 6,7 C 83 % 991,7 hPa 0,0 l/m 0 min 0 min 0,0 UV-I 30 W/m 0,0 km/h (0 Bft)
25.12.2013 15:40 8,1 C 6,7 C 83 % 991,7 hPa 0,0 l/m 0 min 0 min 0,0 UV-I 28 W/m 2,6 km/h (1 Bft)
25.12.2013 15:42 8,1 C 6,7 C 83 % 991,7 hPa 0,0 l/m 0 min 0 min 0,0 UV-I 26 W/m 2,6 km/h (1 Bft)
25.12.2013 15:44 8,1 C 6,7 C 83 % 991,7 hPa 0,0 l/m 0 min 0 min 0,0 UV-I 26 W/m 0,0 km/h (0 Bft)
25.12.2013 15:46 8,1 C 6,1 C 84 % 991,7 hPa 0,0 l/m 0 min 0 min 0,0 UV-I 26 W/m 0,0 km/h (0 Bft)
25.12.2013 15:48 8,1 C 6,1 C 84 % 991,6 hPa 0,0 l/m 0 min 0 min 0,0 UV-I 25 W/m 5,1 km/h (1 Bft)
25.12.2013 15:50 8,1 C 6,1 C 84 % 991,7 hPa 0,0 l/m 0 min 0 min 0,0 UV-I 21 W/m 0,0 km/h (0 Bft)
25.12.2013 15:52 8,1 C 6,1 C 84 % 991,7 hPa 0,0 l/m 0 min 0 min 0,0 UV-I 19 W/m 0,0 km/h (0 Bft)
25.12.2013 15:54 8,1 C 6,1 C 84 % 991,7 hPa 0,0 l/m 0 min 0 min 0,0 UV-I 19 W/m 0,0 km/h (0 Bft)
25.12.2013 15:56 8,1 C 6,1 C 84 % 991,7 hPa 0,0 l/m 0 min 0 min 0,0 UV-I 18 W/m 0,0 km/h (0 Bft)
25.12.2013 15:58 8,1 C 6,1 C 84 % 991,7 hPa 0,0 l/m 0 min 0 min 0,0 UV-I 16 W/m 0,0 km/h (0 Bft)
25.12.2013 16:00 8,1 C 6,1 C 84 % 991,7 hPa 0,0 l/m 0 min 0 min 0,0 UV-I 14 W/m 0,0 km/h (0 Bft)
25.12.2013 16:02 8,0 C 6,1 C 84 % 991,8 hPa 0,0 l/m 0 min 0 min 0,0 UV-I 12 W/m 0,0 km/h (0 Bft)
25.12.2013 16:04 8,0 C 6,1 C 84 % 991,8 hPa 0,0 l/m 0 min 0 min 0,0 UV-I 12 W/m 5,1 km/h (1 Bft)
25.12.2013 16:06 8,0 C 5,6 C 84 % 991,8 hPa 0,0 l/m 0 min 0 min 0,0 UV-I 12 W/m 0,0 km/h (0 Bft)
25.12.2013 16:08 7,9 C 5,6 C 84 % 991,9 hPa 0,0 l/m 0 min 0 min 0,0 UV-I 12 W/m 0,0 km/h (0 Bft)
25.12.2013 16:10 7,9 C 5,6 C 84 % 991,9 hPa 0,0 l/m 0 min 0 min 0,0 UV-I 11 W/m 0,0 km/h (0 Bft)
25.12.2013 16:12 7,9 C 5,6 C 84 % 991,8 hPa 0,0 l/m 0 min 0 min 0,0 UV-I 11 W/m 0,0 km/h (0 Bft)
25.12.2013 16:14 7,9 C 5,6 C 84 % 991,9 hPa 0,0 l/m 0 min 0 min 0,0 UV-I 9 W/m 0,0 km/h (0 Bft)
25.12.2013 16:16 7,9 C 5,6 C 84 % 991,9 hPa 0,0 l/m 0 min 0 min 0,0 UV-I 9 W/m 2,6 km/h (1 Bft)
25.12.2013 16:18 7,8 C 5,6 C 84 % 991,9 hPa 0,0 l/m 0 min 0 min 0,0 UV-I 7 W/m 0,0 km/h (0 Bft)
25.12.2013 16:20 7,8 C 5,6 C 84 % 991,9 hPa 0,0 l/m 0 min 0 min 0,0 UV-I 5 W/m 5,1 km/h (1 Bft)
25.12.2013 16:22 7,8 C 5,6 C 84 % 991,8 hPa 0,0 l/m 0 min 0 min 0,0 UV-I 5 W/m 0,0 km/h (0 Bft)
25.12.2013 16:24 7,8 C 5,6 C 84 % 991,8 hPa 0,0 l/m 0 min 0 min 0,0 UV-I 5 W/m 0,0 km/h (0 Bft)
25.12.2013 16:26 7,7 C 5,6 C 84 % 991,8 hPa 0,0 l/m 0 min 0 min 0,0 UV-I 5 W/m 0,0 km/h (0 Bft)
25.12.2013 16:28 7,7 C 5,6 C 84 % 991,7 hPa 0,0 l/m 0 min 0 min 0,0 UV-I 5 W/m 0,0 km/h (0 Bft)
25.12.2013 16:30 7,7 C 5,6 C 84 % 991,6 hPa 0,0 l/m 0 min 0 min 0,0 UV-I 0 W/m 2,6 km/h (1 Bft)
25.12.2013 16:32 7,7 C 5,6 C 85 % 991,6 hPa 0,0 l/m 0 min 0 min 0,0 UV-I 0 W/m 0,0 km/h (0 Bft)
25.12.2013 16:34 7,7 C 5,6 C 85 % 991,6 hPa 0,0 l/m 0 min 0 min 0,0 UV-I 0 W/m 0,0 km/h (0 Bft)
25.12.2013 16:36 7,6 C 5,6 C 85 % 991,6 hPa 0,0 l/m 0 min 0 min 0,0 UV-I 0 W/m 0,0 km/h (0 Bft)
25.12.2013 16:38 7,6 C 5,6 C 85 % 991,6 hPa 0,0 l/m 0 min 0 min 0,0 UV-I 0 W/m 0,0 km/h (0 Bft)
25.12.2013 16:40 7,6 C 5,6 C 85 % 991,5 hPa 0,0 l/m 0 min 0 min 0,0 UV-I 0 W/m 0,0 km/h (0 Bft)
25.12.2013 16:42 7,6 C 5,0 C 85 % 991,4 hPa 0,0 l/m 0 min 0 min 0,0 UV-I 0 W/m 0,0 km/h (0 Bft)
25.12.2013 16:44 7,5 C 5,0 C 85 % 991,3 hPa 0,0 l/m 0 min 0 min 0,0 UV-I 0 W/m 0,0 km/h (0 Bft)
25.12.2013 16:46 7,5 C 5,0 C 85 % 991,3 hPa 0,0 l/m 0 min 0 min 0,0 UV-I 0 W/m 0,0 km/h (0 Bft)
25.12.2013 16:48 7,5 C 5,0 C 85 % 991,3 hPa 0,0 l/m 0 min 0 min 0,0 UV-I 0 W/m 0,0 km/h (0 Bft)
25.12.2013 16:50 7,5 C 5,0 C 85 % 991,3 hPa 0,0 l/m 0 min 0 min 0,0 UV-I 0 W/m 0,0 km/h (0 Bft)
25.12.2013 16:52 7,4 C 5,0 C 85 % 991,3 hPa 0,0 l/m 0 min 0 min 0,0 UV-I 0 W/m 0,0 km/h (0 Bft)
25.12.2013 16:54 7,4 C 5,0 C 85 % 991,3 hPa 0,0 l/m 0 min 0 min 0,0 UV-I 0 W/m 0,0 km/h (0 Bft)
25.12.2013 16:56 7,4 C 5,0 C 85 % 991,2 hPa 0,0 l/m 0 min 0 min 0,0 UV-I 0 W/m 0,0 km/h (0 Bft)
25.12.2013 16:58 7,4 C 5,0 C 85 % 991,1 hPa 0,0 l/m 0 min 0 min 0,0 UV-I 0 W/m 0,0 km/h (0 Bft)
25.12.2013 17:00 7,4 C 4,4 C 85 % 991,1 hPa 0,0 l/m 0 min 0 min 0,0 UV-I 0 W/m 0,0 km/h (0 Bft)
25.12.2013 17:02 7,3 C 4,4 C 85 % 991,1 hPa 0,0 l/m 0 min 0 min 0,0 UV-I 0 W/m 0,0 km/h (0 Bft)
25.12.2013 17:04 7,3 C 4,4 C 85 % 991,2 hPa 0,0 l/m 0 min 0 min 0,0 UV-I 0 W/m 0,0 km/h (0 Bft)
25.12.2013 17:06 7,3 C 4,4 C 85 % 991,3 hPa 0,0 l/m 0 min 0 min 0,0 UV-I 0 W/m 0,0 km/h (0 Bft)
25.12.2013 17:08 7,2 C 4,4 C 85 % 991,3 hPa 0,0 l/m 0 min 0 min 0,0 UV-I 0 W/m 0,0 km/h (0 Bft)
25.12.2013 17:10 7,2 C 4,4 C 85 % 991,3 hPa 0,0 l/m 0 min 0 min 0,0 UV-I 0 W/m 0,0 km/h (0 Bft)
25.12.2013 17:12 7,2 C 4,4 C 85 % 991,3 hPa 0,0 l/m 0 min 0 min 0,0 UV-I 0 W/m 0,0 km/h (0 Bft)
25.12.2013 17:14 7,1 C 3,9 C 85 % 991,3 hPa 0,0 l/m 0 min 0 min 0,0 UV-I 0 W/m 0,0 km/h (0 Bft)
25.12.2013 17:16 7,1 C 3,9 C 85 % 991,3 hPa 0,0 l/m 0 min 0 min 0,0 UV-I 0 W/m 0,0 km/h (0 Bft)
25.12.2013 17:18 7,1 C 3,9 C 85 % 991,4 hPa 0,0 l/m 0 min 0 min 0,0 UV-I 0 W/m 0,0 km/h (0 Bft)
25.12.2013 17:20 7,0 C 3,9 C 85 % 991,3 hPa 0,0 l/m 0 min 0 min 0,0 UV-I 0 W/m 0,0 km/h (0 Bft)
25.12.2013 17:22 6,9 C 3,9 C 86 % 991,3 hPa 0,0 l/m 0 min 0 min 0,0 UV-I 0 W/m 0,0 km/h (0 Bft)
25.12.2013 17:24 6,9 C 3,9 C 86 % 991,5 hPa 0,0 l/m 0 min 0 min 0,0 UV-I 0 W/m 0,0 km/h (0 Bft)
25.12.2013 17:26 6,8 C 3,9 C 86 % 991,5 hPa 0,0 l/m 0 min 0 min 0,0 UV-I 0 W/m 0,0 km/h (0 Bft)
25.12.2013 17:28 6,8 C 3,9 C 86 % 991,5 hPa 0,0 l/m 0 min 0 min 0,0 UV-I 0 W/m 0,0 km/h (0 Bft)
25.12.2013 17:30 6,8 C 3,9 C 86 % 991,5 hPa 0,0 l/m 0 min 0 min 0,0 UV-I 0 W/m 0,0 km/h (0 Bft)
25.12.2013 17:32 6,7 C 3,9 C 86 % 991,5 hPa 0,0 l/m 0 min 0 min 0,0 UV-I 0 W/m 0,0 km/h (0 Bft)
25.12.2013 17:34 6,7 C 3,9 C 87 % 991,5 hPa 0,0 l/m 0 min 0 min 0,0 UV-I 0 W/m 0,0 km/h (0 Bft)
25.12.2013 17:36 6,6 C 3,9 C 86 % 991,6 hPa 0,0 l/m 0 min 0 min 0,0 UV-I 0 W/m 0,0 km/h (0 Bft)
25.12.2013 17:38 6,6 C 3,9 C 87 % 991,7 hPa 0,0 l/m 0 min 0 min 0,0 UV-I 0 W/m 0,0 km/h (0 Bft)
25.12.2013 17:40 6,5 C 3,9 C 87 % 991,7 hPa 0,0 l/m 0 min 0 min 0,0 UV-I 0 W/m 0,0 km/h (0 Bft)
25.12.2013 17:42 6,4 C 3,3 C 87 % 991,8 hPa 0,0 l/m 0 min 0 min 0,0 UV-I 0 W/m 0,0 km/h (0 Bft)
25.12.2013 17:44 6,4 C 3,3 C 87 % 991,8 hPa 0,0 l/m 0 min 0 min 0,0 UV-I 0 W/m 0,0 km/h (0 Bft)
25.12.2013 17:46 6,4 C 3,3 C 87 % 991,9 hPa 0,0 l/m 0 min 0 min 0,0 UV-I 0 W/m 0,0 km/h (0 Bft)
25.12.2013 17:48 6,4 C 3,3 C 87 % 991,9 hPa 0,0 l/m 0 min 0 min 0,0 UV-I 0 W/m 0,0 km/h (0 Bft)
25.12.2013 17:50 6,3 C 3,3 C 87 % 991,9 hPa 0,0 l/m 0 min 0 min 0,0 UV-I 0 W/m 0,0 km/h (0 Bft)
25.12.2013 17:52 6,3 C 3,3 C 87 % 992,0 hPa 0,0 l/m 0 min 0 min 0,0 UV-I 0 W/m 0,0 km/h (0 Bft)
25.12.2013 17:54 6,2 C 3,3 C 87 % 992,1 hPa 0,0 l/m 0 min 0 min 0,0 UV-I 0 W/m 0,0 km/h (0 Bft)
25.12.2013 17:56 6,2 C 3,3 C 87 % 992,1 hPa 0,0 l/m 0 min 0 min 0,0 UV-I 0 W/m 0,0 km/h (0 Bft)
25.12.2013 17:58 6,2 C 3,3 C 87 % 992,1 hPa 0,0 l/m 0 min 0 min 0,0 UV-I 0 W/m 0,0 km/h (0 Bft)
25.12.2013 18:00 6,1 C 3,3 C 87 % 992,2 hPa 0,0 l/m 0 min 0 min 0,0 UV-I 0 W/m 0,0 km/h (0 Bft)
25.12.2013 18:02 6,1 C 3,3 C 87 % 992,2 hPa 0,0 l/m 0 min 0 min 0,0 UV-I 0 W/m 0,0 km/h (0 Bft)
25.12.2013 18:04 6,0 C 3,3 C 88 % 992,3 hPa 0,0 l/m 0 min 0 min 0,0 UV-I 0 W/m 0,0 km/h (0 Bft)
25.12.2013 18:06 6,0 C 3,3 C 88 % 992,3 hPa 0,0 l/m 0 min 0 min 0,0 UV-I 0 W/m 0,0 km/h (0 Bft)
25.12.2013 18:08 5,9 C 2,8 C 88 % 992,3 hPa 0,0 l/m 0 min 0 min 0,0 UV-I 0 W/m 0,0 km/h (0 Bft)
25.12.2013 18:10 5,9 C 2,8 C 88 % 992,3 hPa 0,0 l/m 0 min 0 min 0,0 UV-I 0 W/m 0,0 km/h (0 Bft)
25.12.2013 18:12 5,9 C 2,8 C 88 % 992,4 hPa 0,0 l/m 0 min 0 min 0,0 UV-I 0 W/m 0,0 km/h (0 Bft)
25.12.2013 18:14 5,8 C 2,8 C 88 % 992,4 hPa 0,0 l/m 0 min 0 min 0,0 UV-I 0 W/m 0,0 km/h (0 Bft)
25.12.2013 18:16 5,8 C 2,8 C 88 % 992,4 hPa 0,0 l/m 0 min 0 min 0,0 UV-I 0 W/m 0,0 km/h (0 Bft)
25.12.2013 18:18 5,8 C 2,8 C 88 % 992,3 hPa 0,0 l/m 0 min 0 min 0,0 UV-I 0 W/m 0,0 km/h (0 Bft)
25.12.2013 18:20 5,7 C 2,8 C 88 % 992,4 hPa 0,0 l/m 0 min 0 min 0,0 UV-I 0 W/m 0,0 km/h (0 Bft)
25.12.2013 18:22 5,7 C 2,8 C 88 % 992,4 hPa 0,0 l/m 0 min 0 min 0,0 UV-I 0 W/m 0,0 km/h (0 Bft)
25.12.2013 18:24 5,6 C 2,8 C 88 % 992,4 hPa 0,0 l/m 0 min 0 min 0,0 UV-I 0 W/m 0,0 km/h (0 Bft)
25.12.2013 18:26 5,6 C 2,8 C 88 % 992,4 hPa 0,0 l/m 0 min 0 min 0,0 UV-I 0 W/m 0,0 km/h (0 Bft)
25.12.2013 18:28 5,6 C 2,8 C 88 % 992,4 hPa 0,0 l/m 0 min 0 min 0,0 UV-I 0 W/m 0,0 km/h (0 Bft)
25.12.2013 18:30 5,5 C 2,8 C 88 % 992,4 hPa 0,0 l/m 0 min 0 min 0,0 UV-I 0 W/m 0,0 km/h (0 Bft)
25.12.2013 18:32 5,5 C 2,8 C 88 % 992,4 hPa 0,0 l/m 0 min 0 min 0,0 UV-I 0 W/m 0,0 km/h (0 Bft)
25.12.2013 18:34 5,4 C 2,8 C 88 % 992,4 hPa 0,0 l/m 0 min 0 min 0,0 UV-I 0 W/m 0,0 km/h (0 Bft)
25.12.2013 18:36 5,4 C 2,8 C 88 % 992,4 hPa 0,0 l/m 0 min 0 min 0,0 UV-I 0 W/m 0,0 km/h (0 Bft)
25.12.2013 18:38 5,4 C 2,2 C 88 % 992,3 hPa 0,0 l/m 0 min 0 min 0,0 UV-I 0 W/m 0,0 km/h (0 Bft)
25.12.2013 18:40 5,3 C 2,2 C 89 % 992,3 hPa 0,0 l/m 0 min 0 min 0,0 UV-I 0 W/m 0,0 km/h (0 Bft)
25.12.2013 18:42 5,3 C 2,2 C 89 % 992,4 hPa 0,0 l/m 0 min 0 min 0,0 UV-I 0 W/m 0,0 km/h (0 Bft)
25.12.2013 18:44 5,3 C 2,2 C 89 % 992,4 hPa 0,0 l/m 0 min 0 min 0,0 UV-I 0 W/m 0,0 km/h (0 Bft)
25.12.2013 18:46 5,2 C 2,2 C 89 % 992,3 hPa 0,0 l/m 0 min 0 min 0,0 UV-I 0 W/m 0,0 km/h (0 Bft)
25.12.2013 18:48 5,2 C 2,2 C 89 % 992,3 hPa 0,0 l/m 0 min 0 min 0,0 UV-I 0 W/m 0,0 km/h (0 Bft)
25.12.2013 18:50 5,2 C 2,2 C 89 % 992,3 hPa 0,0 l/m 0 min 0 min 0,0 UV-I 0 W/m 0,0 km/h (0 Bft)
25.12.2013 18:52 5,1 C 2,2 C 89 % 992,2 hPa 0,0 l/m 0 min 0 min 0,0 UV-I 0 W/m 0,0 km/h (0 Bft)
25.12.2013 18:54 5,1 C 2,2 C 89 % 992,3 hPa 0,0 l/m 0 min 0 min 0,0 UV-I 0 W/m 0,0 km/h (0 Bft)
25.12.2013 18:56 5,1 C 2,2 C 89 % 992,3 hPa 0,0 l/m 0 min 0 min 0,0 UV-I 0 W/m 0,0 km/h (0 Bft)
25.12.2013 18:58 5,0 C 2,8 C 89 % 992,4 hPa 0,0 l/m 0 min 0 min 0,0 UV-I 0 W/m 0,0 km/h (0 Bft)
25.12.2013 19:00 5,0 C 2,8 C 89 % 992,4 hPa 0,0 l/m 0 min 0 min 0,0 UV-I 0 W/m 0,0 km/h (0 Bft)
25.12.2013 19:02 4,9 C 2,8 C 89 % 992,3 hPa 0,0 l/m 0 min 0 min 0,0 UV-I 0 W/m 2,6 km/h (1 Bft)
25.12.2013 19:04 4,9 C 2,8 C 89 % 992,3 hPa 0,0 l/m 0 min 0 min 0,0 UV-I 0 W/m 5,1 km/h (1 Bft)
25.12.2013 19:06 4,9 C 2,8 C 90 % 992,2 hPa 0,0 l/m 0 min 0 min 0,0 UV-I 0 W/m 0,0 km/h (0 Bft)
25.12.2013 19:08 4,9 C 2,8 C 90 % 992,3 hPa 0,0 l/m 0 min 0 min 0,0 UV-I 0 W/m 0,0 km/h (0 Bft)
25.12.2013 19:10 4,9 C 2,8 C 90 % 992,2 hPa 0,0 l/m 0 min 0 min 0,0 UV-I 0 W/m 0,0 km/h (0 Bft)
25.12.2013 19:12 4,8 C 2,8 C 90 % 992,2 hPa 0,0 l/m 0 min 0 min 0,0 UV-I 0 W/m 0,0 km/h (0 Bft)
25.12.2013 19:14 4,8 C 2,8 C 90 % 992,3 hPa 0,0 l/m 0 min 0 min 0,0 UV-I 0 W/m 0,0 km/h (0 Bft)
25.12.2013 19:16 4,8 C 2,2 C 90 % 992,2 hPa 0,0 l/m 0 min 0 min 0,0 UV-I 0 W/m 0,0 km/h (0 Bft)
25.12.2013 19:18 4,8 C 2,2 C 90 % 992,3 hPa 0,0 l/m 0 min 0 min 0,0 UV-I 0 W/m 0,0 km/h (0 Bft)
25.12.2013 19:20 4,7 C 2,2 C 90 % 992,3 hPa 0,0 l/m 0 min 0 min 0,0 UV-I 0 W/m 0,0 km/h (0 Bft)
25.12.2013 19:22 4,7 C 2,2 C 90 % 992,3 hPa 0,0 l/m 0 min 0 min 0,0 UV-I 0 W/m 2,6 km/h (1 Bft)
25.12.2013 19:24 4,7 C 2,8 C 90 % 992,4 hPa 0,0 l/m 0 min 0 min 0,0 UV-I 0 W/m 5,1 km/h (1 Bft)
25.12.2013 19:26 4,7 C 2,8 C 91 % 992,4 hPa 0,0 l/m 0 min 0 min 0,0 UV-I 0 W/m 0,0 km/h (0 Bft)
25.12.2013 19:28 4,7 C 2,8 C 91 % 992,4 hPa 0,0 l/m 0 min 0 min 0,0 UV-I 0 W/m 0,0 km/h (0 Bft)
25.12.2013 19:30 4,7 C 2,8 C 91 % 992,4 hPa 0,0 l/m 0 min 0 min 0,0 UV-I 0 W/m 0,0 km/h (0 Bft)
25.12.2013 19:32 4,7 C 2,8 C 91 % 992,5 hPa 0,0 l/m 0 min 0 min 0,0 UV-I 0 W/m 0,0 km/h (0 Bft)
25.12.2013 19:34 4,7 C 2,8 C 91 % 992,5 hPa 0,0 l/m 0 min 0 min 0,0 UV-I 0 W/m 0,0 km/h (0 Bft)
25.12.2013 19:36 4,7 C 2,8 C 91 % 992,5 hPa 0,0 l/m 0 min 0 min 0,0 UV-I 0 W/m 0,0 km/h (0 Bft)
25.12.2013 19:38 4,7 C 2,2 C 91 % 992,5 hPa 0,0 l/m 0 min 0 min 0,0 UV-I 0 W/m 0,0 km/h (0 Bft)
25.12.2013 19:40 4,7 C 2,8 C 91 % 992,5 hPa 0,0 l/m 0 min 0 min 0,0 UV-I 0 W/m 0,0 km/h (0 Bft)
25.12.2013 19:42 4,6 C 2,2 C 91 % 992,5 hPa 0,0 l/m 0 min 0 min 0,0 UV-I 0 W/m 0,0 km/h (0 Bft)
25.12.2013 19:44 4,6 C 2,2 C 91 % 992,5 hPa 0,0 l/m 0 min 0 min 0,0 UV-I 0 W/m 0,0 km/h (0 Bft)
25.12.2013 19:46 4,6 C 2,2 C 92 % 992,5 hPa 0,0 l/m 0 min 0 min 0,0 UV-I 0 W/m 0,0 km/h (0 Bft)
25.12.2013 19:48 4,6 C 2,2 C 92 % 992,5 hPa 0,0 l/m 0 min 0 min 0,0 UV-I 0 W/m 0,0 km/h (0 Bft)
25.12.2013 19:50 4,6 C 2,2 C 92 % 992,6 hPa 0,0 l/m 0 min 0 min 0,0 UV-I 0 W/m 0,0 km/h (0 Bft)
25.12.2013 19:52 4,6 C 2,2 C 92 % 992,5 hPa 0,0 l/m 0 min 0 min 0,0 UV-I 0 W/m 0,0 km/h (0 Bft)
25.12.2013 19:54 4,6 C 2,2 C 92 % 992,5 hPa 0,0 l/m 0 min 0 min 0,0 UV-I 0 W/m 0,0 km/h (0 Bft)
25.12.2013 19:56 4,5 C 2,2 C 92 % 992,6 hPa 0,0 l/m 0 min 0 min 0,0 UV-I 0 W/m 0,0 km/h (0 Bft)
25.12.2013 19:58 4,5 C 2,2 C 92 % 992,6 hPa 0,0 l/m 0 min 0 min 0,0 UV-I 0 W/m 0,0 km/h (0 Bft)
25.12.2013 20:00 4,5 C 1,7 C 92 % 992,6 hPa 0,0 l/m 0 min 0 min 0,0 UV-I 0 W/m 0,0 km/h (0 Bft)
25.12.2013 20:02 4,4 C 1,7 C 91 % 992,6 hPa 0,0 l/m 0 min 0 min 0,0 UV-I 0 W/m 0,0 km/h (0 Bft)
25.12.2013 20:04 4,4 C 1,7 C 91 % 992,5 hPa 0,0 l/m 0 min 0 min 0,0 UV-I 0 W/m 0,0 km/h (0 Bft)
25.12.2013 20:06 4,4 C 1,7 C 91 % 992,6 hPa 0,0 l/m 0 min 0 min 0,0 UV-I 0 W/m 0,0 km/h (0 Bft)
25.12.2013 20:08 4,3 C 1,7 C 91 % 992,6 hPa 0,0 l/m 0 min 0 min 0,0 UV-I 0 W/m 0,0 km/h (0 Bft)
25.12.2013 20:10 4,3 C 1,7 C 91 % 992,6 hPa 0,0 l/m 0 min 0 min 0,0 UV-I 0 W/m 0,0 km/h (0 Bft)
25.12.2013 20:12 4,3 C 1,7 C 91 % 992,6 hPa 0,0 l/m 0 min 0 min 0,0 UV-I 0 W/m 0,0 km/h (0 Bft)
25.12.2013 20:14 4,2 C 1,7 C 91 % 992,7 hPa 0,0 l/m 0 min 0 min 0,0 UV-I 0 W/m 0,0 km/h (0 Bft)
25.12.2013 20:16 4,2 C 1,7 C 91 % 992,7 hPa 0,0 l/m 0 min 0 min 0,0 UV-I 0 W/m 0,0 km/h (0 Bft)
25.12.2013 20:18 4,2 C 1,7 C 91 % 992,8 hPa 0,0 l/m 0 min 0 min 0,0 UV-I 0 W/m 0,0 km/h (0 Bft)
25.12.2013 20:20 4,2 C 1,7 C 91 % 992,8 hPa 0,0 l/m 0 min 0 min 0,0 UV-I 0 W/m 0,0 km/h (0 Bft)
25.12.2013 20:22 4,1 C 1,7 C 91 % 992,7 hPa 0,0 l/m 0 min 0 min 0,0 UV-I 0 W/m 0,0 km/h (0 Bft)
25.12.2013 20:24 4,1 C 1,7 C 92 % 992,8 hPa 0,0 l/m 0 min 0 min 0,0 UV-I 0 W/m 0,0 km/h (0 Bft)
25.12.2013 20:26 4,1 C 1,7 C 91 % 992,7 hPa 0,0 l/m 0 min 0 min 0,0 UV-I 0 W/m 0,0 km/h (0 Bft)
25.12.2013 20:28 4,0 C 1,7 C 91 % 992,7 hPa 0,0 l/m 0 min 0 min 0,0 UV-I 0 W/m 0,0 km/h (0 Bft)
25.12.2013 20:30 4,0 C 1,7 C 91 % 992,6 hPa 0,0 l/m 0 min 0 min 0,0 UV-I 0 W/m 0,0 km/h (0 Bft)
25.12.2013 20:32 3,9 C 1,7 C 91 % 992,6 hPa 0,0 l/m 0 min 0 min 0,0 UV-I 0 W/m 0,0 km/h (0 Bft)
25.12.2013 20:34 3,9 C 1,7 C 91 % 992,6 hPa 0,0 l/m 0 min 0 min 0,0 UV-I 0 W/m 0,0 km/h (0 Bft)
25.12.2013 20:36 3,9 C 1,7 C 91 % 992,6 hPa 0,0 l/m 0 min 0 min 0,0 UV-I 0 W/m 0,0 km/h (0 Bft)
25.12.2013 20:38 3,8 C 1,7 C 91 % 992,7 hPa 0,0 l/m 0 min 0 min 0,0 UV-I 0 W/m 0,0 km/h (0 Bft)
25.12.2013 20:40 3,8 C 1,7 C 91 % 992,7 hPa 0,0 l/m 0 min 0 min 0,0 UV-I 0 W/m 0,0 km/h (0 Bft)
25.12.2013 20:42 3,8 C 1,7 C 92 % 992,7 hPa 0,0 l/m 0 min 0 min 0,0 UV-I 0 W/m 0,0 km/h (0 Bft)
25.12.2013 20:44 3,8 C 1,7 C 91 % 992,7 hPa 0,0 l/m 0 min 0 min 0,0 UV-I 0 W/m 0,0 km/h (0 Bft)
25.12.2013 20:46 3,7 C 1,1 C 91 % 992,7 hPa 0,0 l/m 0 min 0 min 0,0 UV-I 0 W/m 0,0 km/h (0 Bft)
25.12.2013 20:48 3,7 C 1,1 C 92 % 992,7 hPa 0,0 l/m 0 min 0 min 0,0 UV-I 0 W/m 0,0 km/h (0 Bft)
25.12.2013 20:50 3,7 C 1,1 C 92 % 992,8 hPa 0,0 l/m 0 min 0 min 0,0 UV-I 0 W/m 0,0 km/h (0 Bft)
25.12.2013 20:52 3,7 C 1,1 C 92 % 992,7 hPa 0,0 l/m 0 min 0 min 0,0 UV-I 0 W/m 0,0 km/h (0 Bft)
25.12.2013 20:54 3,6 C 1,1 C 92 % 992,7 hPa 0,0 l/m 0 min 0 min 0,0 UV-I 0 W/m 0,0 km/h (0 Bft)
25.12.2013 20:56 3,6 C 1,1 C 92 % 992,6 hPa 0,0 l/m 0 min 0 min 0,0 UV-I 0 W/m 0,0 km/h (0 Bft)
25.12.2013 20:58 3,6 C 1,1 C 92 % 992,7 hPa 0,0 l/m 0 min 0 min 0,0 UV-I 0 W/m 0,0 km/h (0 Bft)
25.12.2013 21:00 3,5 C 1,1 C 92 % 992,6 hPa 0,0 l/m 0 min 0 min 0,0 UV-I 0 W/m 0,0 km/h (0 Bft)
25.12.2013 21:02 3,5 C 1,1 C 92 % 992,6 hPa 0,0 l/m 0 min 0 min 0,0 UV-I 0 W/m 0,0 km/h (0 Bft)
25.12.2013 21:04 3,4 C 1,1 C 92 % 992,6 hPa 0,0 l/m 0 min 0 min 0,0 UV-I 0 W/m 0,0 km/h (0 Bft)
25.12.2013 21:06 3,4 C 1,1 C 92 % 992,6 hPa 0,0 l/m 0 min 0 min 0,0 UV-I 0 W/m 0,0 km/h (0 Bft)
25.12.2013 21:08 3,4 C 1,1 C 92 % 992,6 hPa 0,0 l/m 0 min 0 min 0,0 UV-I 0 W/m 0,0 km/h (0 Bft)
25.12.2013 21:10 3,4 C 1,1 C 92 % 992,7 hPa 0,0 l/m 0 min 0 min 0,0 UV-I 0 W/m 0,0 km/h (0 Bft)
25.12.2013 21:12 3,3 C 1,1 C 92 % 992,6 hPa 0,0 l/m 0 min 0 min 0,0 UV-I 0 W/m 0,0 km/h (0 Bft)
25.12.2013 21:14 3,3 C 1,1 C 92 % 992,5 hPa 0,0 l/m 0 min 0 min 0,0 UV-I 0 W/m 0,0 km/h (0 Bft)
25.12.2013 21:16 3,3 C 1,1 C 92 % 992,4 hPa 0,0 l/m 0 min 0 min 0,0 UV-I 0 W/m 0,0 km/h (0 Bft)
25.12.2013 21:18 3,3 C 1,1 C 92 % 992,4 hPa 0,0 l/m 0 min 0 min 0,0 UV-I 0 W/m 0,0 km/h (0 Bft)
25.12.2013 21:20 3,2 C 1,1 C 92 % 992,4 hPa 0,0 l/m 0 min 0 min 0,0 UV-I 0 W/m 0,0 km/h (0 Bft)
25.12.2013 21:22 3,2 C 1,1 C 92 % 992,4 hPa 0,0 l/m 0 min 0 min 0,0 UV-I 0 W/m 0,0 km/h (0 Bft)
25.12.2013 21:24 3,2 C 1,1 C 92 % 992,4 hPa 0,0 l/m 0 min 0 min 0,0 UV-I 0 W/m 0,0 km/h (0 Bft)
25.12.2013 21:26 3,2 C 1,1 C 92 % 992,5 hPa 0,0 l/m 0 min 0 min 0,0 UV-I 0 W/m 0,0 km/h (0 Bft)
25.12.2013 21:28 3,2 C 1,1 C 92 % 992,5 hPa 0,0 l/m 0 min 0 min 0,0 UV-I 0 W/m 0,0 km/h (0 Bft)
25.12.2013 21:30 3,2 C 1,1 C 92 % 992,5 hPa 0,0 l/m 0 min 0 min 0,0 UV-I 0 W/m 0,0 km/h (0 Bft)
25.12.2013 21:32 3,1 C 1,1 C 92 % 992,6 hPa 0,0 l/m 0 min 0 min 0,0 UV-I 0 W/m 0,0 km/h (0 Bft)
25.12.2013 21:34 3,1 C 1,1 C 92 % 992,5 hPa 0,0 l/m 0 min 0 min 0,0 UV-I 0 W/m 0,0 km/h (0 Bft)
25.12.2013 21:36 3,1 C 1,1 C 92 % 992,6 hPa 0,0 l/m 0 min 0 min 0,0 UV-I 0 W/m 0,0 km/h (0 Bft)
25.12.2013 21:38 3,1 C 1,1 C 93 % 992,5 hPa 0,0 l/m 0 min 0 min 0,0 UV-I 0 W/m 0,0 km/h (0 Bft)
25.12.2013 21:40 3,1 C 1,1 C 93 % 992,5 hPa 0,0 l/m 0 min 0 min 0,0 UV-I 0 W/m 0,0 km/h (0 Bft)
25.12.2013 21:42 3,1 C 1,1 C 93 % 992,5 hPa 0,0 l/m 0 min 0 min 0,0 UV-I 0 W/m 0,0 km/h (0 Bft)
25.12.2013 21:44 3,0 C 1,1 C 93 % 992,6 hPa 0,0 l/m 0 min 0 min 0,0 UV-I 0 W/m 0,0 km/h (0 Bft)
25.12.2013 21:46 3,0 C 1,1 C 93 % 992,5 hPa 0,0 l/m 0 min 0 min 0,0 UV-I 0 W/m 0,0 km/h (0 Bft)
25.12.2013 21:48 3,0 C 1,1 C 93 % 992,6 hPa 0,0 l/m 0 min 0 min 0,0 UV-I 0 W/m 0,0 km/h (0 Bft)
25.12.2013 21:50 2,9 C 1,1 C 93 % 992,5 hPa 0,0 l/m 0 min 0 min 0,0 UV-I 0 W/m 0,0 km/h (0 Bft)
25.12.2013 21:52 2,9 C 1,1 C 93 % 992,5 hPa 0,0 l/m 0 min 0 min 0,0 UV-I 0 W/m 0,0 km/h (0 Bft)
25.12.2013 21:54 2,9 C 1,1 C 93 % 992,5 hPa 0,0 l/m 0 min 0 min 0,0 UV-I 0 W/m 0,0 km/h (0 Bft)
25.12.2013 21:56 2,9 C 1,1 C 93 % 992,5 hPa 0,0 l/m 0 min 0 min 0,0 UV-I 0 W/m 0,0 km/h (0 Bft)
25.12.2013 21:58 2,9 C 1,1 C 93 % 992,4 hPa 0,0 l/m 0 min 0 min 0,0 UV-I 0 W/m 0,0 km/h (0 Bft)
25.12.2013 22:00 2,9 C 1,1 C 93 % 992,4 hPa 0,0 l/m 0 min 0 min 0,0 UV-I 0 W/m 0,0 km/h (0 Bft)
25.12.2013 22:02 2,8 C 1,1 C 93 % 992,4 hPa 0,0 l/m 0 min 0 min 0,0 UV-I 0 W/m 0,0 km/h (0 Bft)
25.12.2013 22:04 2,8 C 1,1 C 93 % 992,3 hPa 0,0 l/m 0 min 0 min 0,0 UV-I 0 W/m 0,0 km/h (0 Bft)
25.12.2013 22:06 2,8 C 0,6 C 93 % 992,3 hPa 0,0 l/m 0 min 0 min 0,0 UV-I 0 W/m 0,0 km/h (0 Bft)
25.12.2013 22:08 2,8 C 0,6 C 93 % 992,3 hPa 0,0 l/m 0 min 0 min 0,0 UV-I 0 W/m 0,0 km/h (0 Bft)
25.12.2013 22:10 2,8 C 0,6 C 93 % 992,3 hPa 0,0 l/m 0 min 0 min 0,0 UV-I 0 W/m 0,0 km/h (0 Bft)
25.12.2013 22:12 2,8 C 0,6 C 93 % 992,3 hPa 0,0 l/m 0 min 0 min 0,0 UV-I 0 W/m 0,0 km/h (0 Bft)
25.12.2013 22:14 2,7 C 0,6 C 93 % 992,3 hPa 0,0 l/m 0 min 0 min 0,0 UV-I 0 W/m 0,0 km/h (0 Bft)
25.12.2013 22:16 2,7 C 0,6 C 93 % 992,3 hPa 0,0 l/m 0 min 0 min 0,0 UV-I 0 W/m 0,0 km/h (0 Bft)
25.12.2013 22:18 2,7 C 0,6 C 93 % 992,4 hPa 0,0 l/m 0 min 0 min 0,0 UV-I 0 W/m 0,0 km/h (0 Bft)
25.12.2013 22:20 2,7 C 0,6 C 93 % 992,3 hPa 0,0 l/m 0 min 0 min 0,0 UV-I 0 W/m 0,0 km/h (0 Bft)
25.12.2013 22:22 2,7 C 0,6 C 93 % 992,4 hPa 0,0 l/m 0 min 0 min 0,0 UV-I 0 W/m 0,0 km/h (0 Bft)
25.12.2013 22:24 2,6 C 0,6 C 93 % 992,3 hPa 0,0 l/m 0 min 0 min 0,0 UV-I 0 W/m 0,0 km/h (0 Bft)
25.12.2013 22:26 2,6 C 0,6 C 93 % 992,4 hPa 0,0 l/m 0 min 0 min 0,0 UV-I 0 W/m 0,0 km/h (0 Bft)
25.12.2013 22:28 2,6 C 0,6 C 93 % 992,4 hPa 0,0 l/m 0 min 0 min 0,0 UV-I 0 W/m 0,0 km/h (0 Bft)
25.12.2013 22:30 2,6 C 0,6 C 94 % 992,4 hPa 0,0 l/m 0 min 0 min 0,0 UV-I 0 W/m 0,0 km/h (0 Bft)
25.12.2013 22:32 2,6 C 0,6 C 94 % 992,4 hPa 0,0 l/m 0 min 0 min 0,0 UV-I 0 W/m 0,0 km/h (0 Bft)
25.12.2013 22:34 2,6 C 0,6 C 94 % 992,4 hPa 0,0 l/m 0 min 0 min 0,0 UV-I 0 W/m 0,0 km/h (0 Bft)
25.12.2013 22:36 2,6 C 0,6 C 93 % 992,4 hPa 0,0 l/m 0 min 0 min 0,0 UV-I 0 W/m 0,0 km/h (0 Bft)
25.12.2013 22:38 2,5 C 0,6 C 94 % 992,4 hPa 0,0 l/m 0 min 0 min 0,0 UV-I 0 W/m 0,0 km/h (0 Bft)
25.12.2013 22:40 2,5 C 0,6 C 94 % 992,5 hPa 0,0 l/m 0 min 0 min 0,0 UV-I 0 W/m 0,0 km/h (0 Bft)
25.12.2013 22:42 2,5 C 0,6 C 94 % 992,5 hPa 0,0 l/m 0 min 0 min 0,0 UV-I 0 W/m 0,0 km/h (0 Bft)
25.12.2013 22:44 2,5 C 0,6 C 94 % 992,5 hPa 0,0 l/m 0 min 0 min 0,0 UV-I 0 W/m 0,0 km/h (0 Bft)
25.12.2013 22:46 2,5 C 0,6 C 94 % 992,5 hPa 0,0 l/m 0 min 0 min 0,0 UV-I 0 W/m 0,0 km/h (0 Bft)
25.12.2013 22:48 2,4 C 0,6 C 94 % 992,5 hPa 0,0 l/m 0 min 0 min 0,0 UV-I 0 W/m 0,0 km/h (0 Bft)
25.12.2013 22:50 2,4 C 0,6 C 94 % 992,6 hPa 0,0 l/m 0 min 0 min 0,0 UV-I 0 W/m 0,0 km/h (0 Bft)
25.12.2013 22:52 2,4 C 0,6 C 94 % 992,6 hPa 0,0 l/m 0 min 0 min 0,0 UV-I 0 W/m 0,0 km/h (0 Bft)
25.12.2013 22:54 2,4 C 1,1 C 94 % 992,6 hPa 0,0 l/m 0 min 0 min 0,0 UV-I 0 W/m 0,0 km/h (0 Bft)
25.12.2013 22:56 2,4 C 1,1 C 94 % 992,6 hPa 0,0 l/m 0 min 0 min 0,0 UV-I 0 W/m 0,0 km/h (0 Bft)
25.12.2013 22:58 2,4 C 1,1 C 94 % 992,5 hPa 0,0 l/m 0 min 0 min 0,0 UV-I 0 W/m 0,0 km/h (0 Bft)
25.12.2013 23:00 2,4 C 1,1 C 94 % 992,5 hPa 0,0 l/m 0 min 0 min 0,0 UV-I 0 W/m 0,0 km/h (0 Bft)
25.12.2013 23:02 2,5 C 1,1 C 94 % 992,5 hPa 0,0 l/m 0 min 0 min 0,0 UV-I 0 W/m 0,0 km/h (0 Bft)
25.12.2013 23:04 2,4 C 1,1 C 94 % 992,6 hPa 0,0 l/m 0 min 0 min 0,0 UV-I 0 W/m 0,0 km/h (0 Bft)
25.12.2013 23:06 2,4 C 1,1 C 94 % 992,7 hPa 0,0 l/m 0 min 0 min 0,0 UV-I 0 W/m 0,0 km/h (0 Bft)
25.12.2013 23:08 2,4 C 1,1 C 94 % 992,7 hPa 0,0 l/m 0 min 0 min 0,0 UV-I 0 W/m 0,0 km/h (0 Bft)
25.12.2013 23:10 2,4 C 1,1 C 94 % 992,7 hPa 0,0 l/m 0 min 0 min 0,0 UV-I 0 W/m 0,0 km/h (0 Bft)
25.12.2013 23:12 2,4 C 0,6 C 94 % 992,7 hPa 0,0 l/m 0 min 0 min 0,0 UV-I 0 W/m 0,0 km/h (0 Bft)
25.12.2013 23:14 2,4 C 0,6 C 94 % 992,7 hPa 0,0 l/m 0 min 0 min 0,0 UV-I 0 W/m 0,0 km/h (0 Bft)
25.12.2013 23:16 2,4 C 0,6 C 94 % 992,8 hPa 0,0 l/m 0 min 0 min 0,0 UV-I 0 W/m 0,0 km/h (0 Bft)
25.12.2013 23:18 2,4 C 1,1 C 94 % 992,8 hPa 0,0 l/m 0 min 0 min 0,0 UV-I 0 W/m 0,0 km/h (0 Bft)
25.12.2013 23:20 2,4 C 1,1 C 94 % 992,7 hPa 0,0 l/m 0 min 0 min 0,0 UV-I 0 W/m 0,0 km/h (0 Bft)
25.12.2013 23:22 2,4 C 1,1 C 95 % 992,8 hPa 0,0 l/m 0 min 0 min 0,0 UV-I 0 W/m 0,0 km/h (0 Bft)
25.12.2013 23:24 2,4 C 1,1 C 95 % 992,8 hPa 0,0 l/m 0 min 0 min 0,0 UV-I 0 W/m 0,0 km/h (0 Bft)
25.12.2013 23:26 2,4 C 1,1 C 95 % 992,8 hPa 0,0 l/m 0 min 0 min 0,0 UV-I 0 W/m 0,0 km/h (0 Bft)
25.12.2013 23:28 2,4 C 1,1 C 95 % 992,9 hPa 0,0 l/m 0 min 0 min 0,0 UV-I 0 W/m 0,0 km/h (0 Bft)
25.12.2013 23:30 2,4 C 1,1 C 95 % 992,8 hPa 0,0 l/m 0 min 0 min 0,0 UV-I 0 W/m 2,6 km/h (1 Bft)
25.12.2013 23:32 2,4 C 1,1 C 95 % 992,8 hPa 0,0 l/m 0 min 0 min 0,0 UV-I 0 W/m 0,0 km/h (0 Bft)
25.12.2013 23:34 2,4 C 1,1 C 95 % 992,7 hPa 0,0 l/m 0 min 0 min 0,0 UV-I 0 W/m 0,0 km/h (0 Bft)
25.12.2013 23:36 2,4 C 1,1 C 95 % 992,7 hPa 0,0 l/m 0 min 0 min 0,0 UV-I 0 W/m 0,0 km/h (0 Bft)
25.12.2013 23:38 2,4 C 1,1 C 95 % 992,6 hPa 0,0 l/m 0 min 0 min 0,0 UV-I 0 W/m 0,0 km/h (0 Bft)
25.12.2013 23:40 2,4 C 1,1 C 95 % 992,5 hPa 0,0 l/m 0 min 0 min 0,0 UV-I 0 W/m 0,0 km/h (0 Bft)
25.12.2013 23:42 2,4 C 1,1 C 95 % 992,6 hPa 0,0 l/m 0 min 0 min 0,0 UV-I 0 W/m 0,0 km/h (0 Bft)
25.12.2013 23:44 2,4 C 1,1 C 95 % 992,6 hPa 0,0 l/m 0 min 0 min 0,0 UV-I 0 W/m 0,0 km/h (0 Bft)
25.12.2013 23:46 2,4 C 1,1 C 95 % 992,6 hPa 0,0 l/m 0 min 0 min 0,0 UV-I 0 W/m 0,0 km/h (0 Bft)
25.12.2013 23:48 2,5 C 1,1 C 95 % 992,6 hPa 0,0 l/m 0 min 0 min 0,0 UV-I 0 W/m 0,0 km/h (0 Bft)
25.12.2013 23:50 2,5 C 1,1 C 95 % 992,7 hPa 0,0 l/m 0 min 0 min 0,0 UV-I 0 W/m 2,6 km/h (1 Bft)
25.12.2013 23:52 2,5 C 1,1 C 95 % 992,7 hPa 0,0 l/m 0 min 0 min 0,0 UV-I 0 W/m 5,1 km/h (1 Bft)
25.12.2013 23:54 2,6 C 1,1 C 95 % 992,7 hPa 0,0 l/m 0 min 0 min 0,0 UV-I 0 W/m 2,6 km/h (1 Bft)
25.12.2013 23:56 2,6 C 1,1 C 95 % 992,6 hPa 0,0 l/m 0 min 0 min 0,0 UV-I 0 W/m 5,1 km/h (1 Bft)
25.12.2013 23:58 2,6 C 1,7 C 95 % 992,5 hPa 0,0 l/m 0 min 0 min 0,0 UV-I 0 W/m 0,0 km/h (0 Bft)
_ Min-Zeit 22:46 22:06 13:12 03:20 - - - - - 00:06
Minimum _ 2,4 C 0,6 C 80 % 983,5 hPa - - - - - 0,0 km/h (0 Bft)
_ Max-Zeit 03:24 02:50 02:40 23:28 03:24 10:42 00:00 00:00 10:50 03:26
Maximum _ 9,4 C 7,8 C 98 % 992,9 hPa 0,6 l/m 2 min 2 min 0,0 UV-I 204 W/m 38,6 km/h
S (5 Bft)
Durchschnitt _ 7,1 C 5,4 C 90 % 989,4 hPa #8,2 l/m #10 min. #5:16 h 0,0 UV-I 60 W/m 5,1 km/h (1 Bft)
© 2013 W. Hausmann